GFSNW_prec_precacc24_048.txt.gz
Total_Precipitation_Accumulation
0.25 0.14 0.20 0.25 0.22 0.21 0.25 0.13 0.06 0.01 0.01 0.07 0.05 0.01 0.00 0.00 0.00 0.00 0.00 0.00 0.00 0.00 0.00 0.00 0.00 0.00 0.00 0.00 0.00 0.00 0.00 0.00 0.02 0.00 0.00 0.00 0.00 0.01 0.02 0.00 0.00 0.00 0.00 0.00
0.39 0.26 0.26 0.28 0.29 0.23 0.15 0.11 0.18 0.22 0.01 0.03 0.01 0.00 0.00 0.00 0.00 0.00 0.00 0.00 0.00 0.00 0.00 0.00 0.00 0.00 0.00 0.00 0.00 0.00 0.00 0.00 0.00 0.00 0.01 0.02 0.00 0.00 0.00 0.00 0.00 0.00 0.00 0.00
0.45 0.33 0.34 0.27 0.26 0.25 0.21 0.12 0.23 0.47 0.19 0.00 0.00 0.00 0.00 0.00 0.00 0.00 0.00 0.00 0.00 0.00 0.00 0.00 0.00 0.00 0.00 0.00 0.00 0.00 0.00 0.00 0.00 0.00 0.00 0.00 0.01 0.01 0.01 0.00 0.00 0.00 0.00 0.00
0.45 0.33 0.39 0.27 0.27 0.26 0.50 0.23 0.05 0.09 0.11 0.01 0.00 0.00 0.00 0.00 0.00 0.00 0.00 0.00 0.00 0.00 0.00 0.00 0.00 0.00 0.00 0.00 0.00 0.00 0.00 0.00 0.00 0.00 0.00 0.00 0.00 0.00 0.00 0.00 0.00 0.00 0.00 0.00
0.41 0.37 0.37 0.30 0.34 0.42 0.83 0.27 0.02 0.03 0.02 0.00 0.01 0.00 0.00 0.00 0.00 0.00 0.00 0.00 0.00 0.00 0.00 0.00 0.00 0.00 0.00 0.00 0.00 0.00 0.00 0.00 0.00 0.00 0.00 0.00 0.00 0.00 0.00 0.00 0.00 0.00 0.00 0.00
0.33 0.31 0.31 0.29 0.38 0.82 1.00 0.26 0.00 0.06 0.06 0.02 0.01 0.00 0.00 0.00 0.00 0.00 0.00 0.00 0.00 0.00 0.00 0.00 0.00 0.00 0.00 0.00 0.00 0.00 0.00 0.00 0.00 0.00 0.00 0.00 0.00 0.00 0.00 0.00 0.00 0.00 0.00 0.00
0.26 0.26 0.26 0.22 0.34 0.76 0.46 0.12 0.04 0.19 0.11 0.03 0.00 0.00 0.00 0.00 0.00 0.00 0.00 0.00 0.00 0.00 0.00 0.00 0.01 0.00 0.00 0.01 0.01 0.00 0.00 0.00 0.00 0.00 0.00 0.00 0.00 0.00 0.00 0.00 0.00 0.00 0.00 0.00
0.22 0.24 0.20 0.23 0.29 0.38 0.38 0.16 0.14 0.28 0.16 0.04 0.01 0.00 0.00 0.00 0.00 0.00 0.00 0.00 0.00 0.01 0.01 0.03 0.03 0.01 0.00 0.00 0.00 0.01 0.02 0.00 0.00 0.00 0.00 0.00 0.00 0.00 0.00 0.00 0.00 0.00 0.00 0.00
0.23 0.21 0.17 0.23 0.19 0.21 0.42 0.28 0.26 0.44 0.33 0.05 0.01 0.01 0.00 0.00 0.02 0.02 0.03 0.02 0.01 0.00 0.03 0.03 0.02 0.01 0.00 0.00 0.00 0.00 0.00 0.01 0.00 0.00 0.00 0.00 0.00 0.00 0.00 0.00 0.00 0.00 0.00 0.00
0.24 0.16 0.14 0.17 0.12 0.11 0.38 0.43 0.44 0.65 0.47 0.13 0.04 0.01 0.00 0.00 0.01 0.08 0.07 0.04 0.05 0.03 0.04 0.03 0.01 0.01 0.00 0.00 0.00 0.00 0.00 0.00 0.00 0.00 0.00 0.00 0.00 0.00 0.00 0.00 0.00 0.00 0.00 0.00
0.21 0.11 0.11 0.11 0.07 0.09 0.42 0.42 0.46 0.59 0.36 0.16 0.10 0.04 0.01 0.00 0.01 0.09 0.05 0.11 0.06 0.09 0.06 0.03 0.02 0.01 0.00 0.00 0.00 0.00 0.00 0.00 0.00 0.00 0.00 0.00 0.00 0.00 0.00 0.00 0.00 0.00 0.00 0.00
0.15 0.07 0.10 0.09 0.07 0.13 0.41 0.46 0.46 0.53 0.50 0.34 0.10 0.05 0.01 0.00 0.00 0.04 0.10 0.06 0.02 0.03 0.04 0.02 0.04 0.01 0.00 0.00 0.00 0.00 0.00 0.00 0.00 0.00 0.00 0.00 0.00 0.00 0.00 0.00 0.00 0.00 0.00 0.00
0.08 0.07 0.11 0.09 0.08 0.16 0.39 0.44 0.53 1.41 0.66 0.41 0.14 0.07 0.05 0.01 0.01 0.03 0.06 0.05 0.02 0.03 0.03 0.03 0.03 0.02 0.00 0.00 0.00 0.00 0.00 0.00 0.00 0.00 0.00 0.00 0.00 0.00 0.00 0.00 0.00 0.00 0.00 0.00
0.06 0.09 0.10 0.11 0.12 0.26 0.39 0.35 0.81 1.66 0.84 0.82 0.29 0.14 0.14 0.07 0.03 0.03 0.02 0.04 0.04 0.05 0.06 0.06 0.04 0.02 0.01 0.00 0.00 0.00 0.00 0.00 0.00 0.00 0.00 0.00 0.00 0.00 0.00 0.00 0.00 0.00 0.00 0.00
0.09 0.09 0.08 0.12 0.16 0.43 0.34 0.46 0.91 1.16 0.89 0.91 0.62 0.11 0.16 0.17 0.11 0.05 0.04 0.04 0.03 0.05 0.09 0.07 0.03 0.01 0.01 0.00 0.00 0.00 0.00 0.00 0.00 0.00 0.00 0.00 0.00 0.00 0.00 0.00 0.00 0.00 0.00 0.00
0.11 0.12 0.12 0.15 0.31 0.62 0.53 0.99 0.66 0.64 0.70 0.78 0.78 0.36 0.16 0.19 0.23 0.13 0.09 0.05 0.04 0.04 0.04 0.04 0.01 0.01 0.01 0.00 0.00 0.00 0.00 0.00 0.00 0.00 0.00 0.00 0.00 0.00 0.00 0.00 0.00 0.00 0.00 0.00
0.16 0.19 0.24 0.26 0.58 0.52 0.73 1.01 0.57 0.54 0.80 0.89 0.63 0.77 0.18 0.25 0.31 0.27 0.15 0.08 0.08 0.07 0.02 0.01 0.00 0.01 0.03 0.01 0.02 0.00 0.00 0.00 0.00 0.00 0.00 0.00 0.00 0.00 0.00 0.00 0.00 0.00 0.00 0.00
0.20 0.29 0.27 0.51 0.62 0.58 0.74 0.56 0.64 0.54 0.70 0.49 0.40 0.44 0.39 0.30 0.36 0.48 0.29 0.28 0.13 0.10 0.03 0.01 0.00 0.00 0.00 0.01 0.00 0.00 0.00 0.00 0.00 0.00 0.00 0.00 0.00 0.00 0.00 0.00 0.00 0.00 0.01 0.03
0.19 0.24 0.53 0.80 0.86 0.89 0.66 0.72 0.71 0.78 0.65 0.42 0.16 0.23 0.21 0.43 0.34 0.43 0.47 0.37 0.38 0.11 0.07 0.02 0.02 0.01 0.00 0.00 0.00 0.00 0.00 0.00 0.00 0.00 0.00 0.00 0.00 0.00 0.00 0.00 0.01 0.04 0.14 0.14
0.27 0.63 1.00 1.10 0.83 0.65 0.76 0.98 0.76 0.71 0.41 0.20 0.12 0.07 0.16 0.28 0.54 0.31 0.37 0.34 0.38 0.44 0.18 0.10 0.05 0.00 0.00 0.00 0.00 0.00 0.00 0.00 0.00 0.00 0.00 0.00 0.00 0.00 0.01 0.03 0.05 0.09 0.11 0.07
0.58 0.84 1.06 0.89 0.75 0.71 0.82 0.80 0.59 0.46 0.19 0.07 0.07 0.06 0.11 0.18 0.38 0.48 0.29 0.43 0.27 0.22 0.34 0.28 0.23 0.08 0.00 0.00 0.00 0.00 0.00 0.00 0.00 0.00 0.00 0.01 0.01 0.03 0.04 0.05 0.03 0.02 0.01 0.01
0.57 0.74 0.69 0.74 0.69 0.49 0.38 0.35 0.29 0.20 0.09 0.02 0.08 0.06 0.06 0.24 0.35 0.48 0.50 0.31 0.29 0.17 0.08 0.18 0.17 0.08 0.06 0.05 0.04 0.02 0.01 0.01 0.01 0.01 0.01 0.02 0.03 0.03 0.02 0.01 0.01 0.01 0.00 0.00
0.64 0.40 0.52 0.50 0.36 0.25 0.18 0.14 0.09 0.06 0.04 0.04 0.08 0.07 0.08 0.09 0.26 0.35 0.26 0.19 0.12 0.10 0.09 0.07 0.05 0.06 0.11 0.10 0.05 0.01 0.00 0.00 0.00 0.00 0.00 0.00 0.00 0.00 0.00 0.00 0.00 0.00 0.00 0.00
0.55 0.43 0.29 0.24 0.15 0.10 0.09 0.06 0.03 0.03 0.04 0.04 0.04 0.02 0.02 0.01 0.03 0.08 0.11 0.11 0.07 0.08 0.05 0.03 0.02 0.04 0.08 0.06 0.01 0.01 0.01 0.00 0.01 0.00 0.00 0.00 0.00 0.00 0.00 0.00 0.00 0.00 0.00 0.00
0.44 0.23 0.17 0.11 0.10 0.10 0.08 0.04 0.02 0.03 0.01 0.01 0.01 0.02 0.03 0.06 0.05 0.04 0.03 0.05 0.04 0.03 0.01 0.01 0.01 0.04 0.04 0.03 0.01 0.00 0.00 0.00 0.00 0.00 0.00 0.01 0.01 0.01 0.01 0.00 0.00 0.00 0.00 0.00
0.28 0.21 0.15 0.10 0.06 0.08 0.06 0.07 0.06 0.05 0.03 0.02 0.02 0.01 0.01 0.07 0.05 0.04 0.03 0.04 0.04 0.04 0.03 0.02 0.02 0.04 0.04 0.02 0.01 0.01 0.01 0.01 0.02 0.03 0.04 0.04 0.03 0.01 0.00 0.00 0.00 0.00 0.00 0.00
0.22 0.37 0.34 0.23 0.19 0.19 0.19 0.16 0.14 0.10 0.06 0.06 0.02 0.03 0.04 0.05 0.05 0.07 0.08 0.10 0.08 0.06 0.04 0.03 0.04 0.05 0.04 0.03 0.06 0.07 0.10 0.10 0.07 0.06 0.06 0.04 0.01 0.00 0.00 0.00 0.00 0.00 0.00 0.00

GFSNW_prec_precacc24_051.txt.gz
Total_Precipitation_Accumulation
0.28 0.16 0.20 0.25 0.23 0.32 0.34 0.17 0.09 0.01 0.01 0.09 0.06 0.01 0.00 0.00 0.00 0.00 0.00 0.00 0.00 0.00 0.00 0.00 0.00 0.00 0.00 0.00 0.00 0.00 0.00 0.00 0.02 0.00 0.00 0.00 0.00 0.01 0.02 0.00 0.00 0.00 0.00 0.00
0.46 0.29 0.28 0.29 0.31 0.29 0.30 0.15 0.21 0.26 0.03 0.03 0.01 0.00 0.00 0.00 0.00 0.00 0.00 0.00 0.00 0.00 0.00 0.00 0.00 0.00 0.00 0.00 0.00 0.00 0.00 0.00 0.00 0.00 0.01 0.02 0.00 0.00 0.00 0.00 0.00 0.00 0.00 0.00
0.57 0.41 0.38 0.28 0.33 0.31 0.33 0.19 0.29 0.59 0.23 0.00 0.00 0.00 0.00 0.00 0.00 0.00 0.00 0.00 0.00 0.00 0.00 0.00 0.00 0.00 0.00 0.00 0.00 0.00 0.00 0.00 0.00 0.00 0.00 0.00 0.01 0.01 0.01 0.00 0.00 0.00 0.00 0.00
0.61 0.45 0.45 0.29 0.31 0.37 0.61 0.33 0.09 0.13 0.13 0.01 0.00 0.00 0.00 0.00 0.00 0.00 0.00 0.00 0.00 0.00 0.00 0.00 0.00 0.00 0.00 0.00 0.00 0.00 0.00 0.00 0.00 0.00 0.00 0.00 0.00 0.00 0.00 0.00 0.00 0.00 0.00 0.00
0.61 0.53 0.43 0.32 0.35 0.52 0.95 0.38 0.03 0.04 0.02 0.00 0.01 0.00 0.00 0.00 0.00 0.00 0.00 0.00 0.00 0.00 0.00 0.00 0.00 0.00 0.00 0.00 0.00 0.00 0.00 0.00 0.00 0.00 0.00 0.00 0.00 0.00 0.00 0.00 0.00 0.00 0.00 0.00
0.54 0.47 0.38 0.31 0.39 0.95 1.19 0.35 0.01 0.07 0.06 0.02 0.01 0.00 0.00 0.00 0.00 0.00 0.00 0.00 0.00 0.00 0.00 0.00 0.00 0.00 0.00 0.00 0.00 0.00 0.00 0.00 0.00 0.00 0.00 0.00 0.00 0.00 0.00 0.00 0.00 0.00 0.00 0.00
0.47 0.41 0.33 0.25 0.35 0.82 0.54 0.14 0.04 0.20 0.12 0.04 0.00 0.00 0.00 0.00 0.00 0.00 0.00 0.00 0.00 0.00 0.00 0.00 0.01 0.00 0.00 0.01 0.01 0.00 0.00 0.00 0.00 0.00 0.00 0.00 0.00 0.00 0.00 0.00 0.00 0.00 0.00 0.00
0.42 0.36 0.27 0.24 0.29 0.38 0.41 0.16 0.14 0.30 0.17 0.04 0.01 0.00 0.00 0.00 0.00 0.00 0.00 0.00 0.00 0.01 0.01 0.03 0.03 0.01 0.00 0.00 0.00 0.01 0.02 0.00 0.00 0.00 0.00 0.00 0.00 0.00 0.00 0.00 0.00 0.00 0.00 0.00
0.40 0.28 0.22 0.24 0.19 0.21 0.44 0.29 0.26 0.47 0.38 0.06 0.02 0.01 0.00 0.00 0.02 0.02 0.03 0.02 0.01 0.00 0.03 0.03 0.02 0.01 0.01 0.00 0.00 0.00 0.00 0.01 0.00 0.00 0.00 0.00 0.00 0.00 0.00 0.00 0.00 0.00 0.00 0.00
0.34 0.21 0.16 0.17 0.12 0.12 0.38 0.44 0.45 0.67 0.53 0.17 0.05 0.02 0.00 0.00 0.01 0.08 0.07 0.04 0.05 0.03 0.04 0.03 0.01 0.01 0.01 0.00 0.00 0.00 0.00 0.00 0.00 0.00 0.00 0.00 0.00 0.00 0.00 0.00 0.00 0.00 0.00 0.00
0.28 0.14 0.13 0.13 0.08 0.12 0.42 0.42 0.47 0.64 0.38 0.21 0.16 0.06 0.02 0.00 0.01 0.09 0.05 0.11 0.06 0.09 0.06 0.03 0.02 0.01 0.00 0.01 0.00 0.00 0.00 0.00 0.00 0.00 0.00 0.00 0.00 0.00 0.00 0.00 0.00 0.00 0.00 0.00
0.21 0.09 0.13 0.13 0.10 0.16 0.41 0.45 0.45 0.58 0.56 0.38 0.18 0.11 0.03 0.00 0.00 0.04 0.10 0.06 0.02 0.03 0.04 0.02 0.04 0.01 0.00 0.00 0.00 0.00 0.00 0.00 0.00 0.00 0.00 0.00 0.00 0.00 0.00 0.00 0.00 0.00 0.00 0.00
0.14 0.11 0.17 0.15 0.13 0.19 0.39 0.43 0.52 1.49 0.81 0.44 0.17 0.16 0.11 0.03 0.01 0.03 0.06 0.05 0.02 0.03 0.03 0.03 0.03 0.02 0.00 0.00 0.00 0.00 0.00 0.00 0.00 0.00 0.00 0.00 0.00 0.00 0.00 0.00 0.00 0.00 0.00 0.00
0.13 0.14 0.16 0.15 0.15 0.29 0.38 0.35 0.81 1.76 1.00 0.84 0.29 0.17 0.18 0.14 0.08 0.03 0.02 0.04 0.04 0.05 0.06 0.06 0.04 0.02 0.01 0.00 0.00 0.00 0.00 0.01 0.00 0.00 0.00 0.00 0.00 0.00 0.00 0.00 0.00 0.00 0.00 0.00
0.10 0.11 0.11 0.17 0.19 0.46 0.34 0.46 0.99 1.33 1.15 0.99 0.62 0.13 0.19 0.21 0.14 0.08 0.04 0.04 0.03 0.05 0.10 0.07 0.03 0.01 0.01 0.01 0.00 0.00 0.00 0.00 0.00 0.00 0.00 0.00 0.00 0.00 0.00 0.00 0.00 0.00 0.00 0.00
0.11 0.12 0.16 0.22 0.38 0.65 0.55 1.05 0.78 0.91 0.96 0.92 0.78 0.37 0.18 0.22 0.29 0.18 0.10 0.06 0.04 0.04 0.04 0.04 0.02 0.01 0.01 0.00 0.00 0.00 0.00 0.01 0.01 0.00 0.01 0.00 0.00 0.00 0.00 0.00 0.00 0.00 0.00 0.00
0.16 0.20 0.28 0.32 0.65 0.54 0.77 1.05 0.59 0.64 1.01 1.02 0.65 0.78 0.20 0.27 0.35 0.32 0.17 0.10 0.10 0.07 0.03 0.01 0.01 0.01 0.04 0.03 0.02 0.00 0.00 0.00 0.00 0.00 0.00 0.00 0.00 0.00 0.00 0.00 0.00 0.00 0.00 0.00
0.21 0.29 0.29 0.57 0.64 0.59 0.76 0.57 0.65 0.56 0.74 0.52 0.44 0.48 0.45 0.35 0.39 0.53 0.32 0.30 0.15 0.13 0.04 0.01 0.00 0.01 0.01 0.02 0.01 0.00 0.00 0.00 0.00 0.00 0.00 0.00 0.00 0.00 0.00 0.00 0.00 0.00 0.00 0.02
0.19 0.25 0.55 0.83 0.87 0.89 0.66 0.72 0.72 0.78 0.68 0.50 0.21 0.26 0.28 0.48 0.36 0.57 0.61 0.43 0.43 0.13 0.07 0.02 0.03 0.01 0.00 0.00 0.00 0.00 0.00 0.00 0.00 0.00 0.00 0.00 0.00 0.00 0.00 0.00 0.00 0.02 0.07 0.05
0.29 0.65 1.03 1.13 0.85 0.66 0.79 1.00 0.77 0.72 0.42 0.25 0.17 0.08 0.18 0.30 0.56 0.36 0.65 0.62 0.47 0.45 0.18 0.11 0.05 0.00 0.00 0.00 0.00 0.00 0.00 0.00 0.00 0.00 0.00 0.00 0.00 0.00 0.01 0.01 0.01 0.01 0.02 0.01
0.62 0.90 1.10 0.90 0.80 0.77 0.92 0.87 0.66 0.49 0.19 0.07 0.07 0.06 0.11 0.18 0.38 0.48 0.31 0.54 0.41 0.26 0.35 0.28 0.23 0.09 0.00 0.00 0.00 0.00 0.00 0.00 0.00 0.00 0.00 0.00 0.00 0.01 0.01 0.00 0.00 0.00 0.00 0.00
0.62 0.80 0.72 0.79 0.78 0.62 0.55 0.51 0.42 0.23 0.09 0.02 0.08 0.06 0.06 0.24 0.35 0.51 0.58 0.47 0.45 0.27 0.10 0.18 0.17 0.08 0.07 0.07 0.06 0.04 0.03 0.02 0.01 0.01 0.00 0.00 0.00 0.00 0.00 0.00 0.00 0.00 0.01 0.03
0.75 0.48 0.55 0.58 0.44 0.42 0.35 0.25 0.17 0.10 0.05 0.05 0.09 0.08 0.10 0.11 0.34 0.54 0.51 0.46 0.35 0.25 0.17 0.10 0.06 0.05 0.11 0.15 0.18 0.20 0.17 0.13 0.08 0.03 0.01 0.01 0.01 0.00 0.00 0.01 0.03 0.04 0.06 0.05
0.75 0.55 0.44 0.39 0.25 0.24 0.20 0.13 0.13 0.13 0.12 0.09 0.15 0.11 0.10 0.07 0.13 0.25 0.21 0.23 0.18 0.23 0.21 0.13 0.10 0.11 0.12 0.08 0.04 0.04 0.06 0.06 0.04 0.03 0.02 0.01 0.01 0.03 0.06 0.07 0.08 0.08 0.07 0.04
0.58 0.36 0.27 0.21 0.27 0.28 0.28 0.25 0.17 0.16 0.12 0.07 0.14 0.13 0.08 0.07 0.08 0.06 0.05 0.09 0.11 0.10 0.11 0.08 0.06 0.07 0.08 0.05 0.03 0.02 0.03 0.05 0.06 0.06 0.06 0.06 0.07 0.06 0.08 0.07 0.07 0.04 0.01 0.00
0.35 0.29 0.28 0.24 0.22 0.19 0.15 0.12 0.09 0.08 0.05 0.03 0.02 0.03 0.04 0.10 0.06 0.05 0.05 0.06 0.07 0.08 0.09 0.09 0.05 0.06 0.07 0.07 0.07 0.09 0.09 0.09 0.07 0.08 0.07 0.08 0.08 0.05 0.05 0.05 0.02 0.01 0.00 0.00
0.23 0.42 0.43 0.29 0.22 0.22 0.21 0.18 0.16 0.11 0.06 0.07 0.02 0.03 0.06 0.07 0.06 0.08 0.10 0.14 0.14 0.12 0.11 0.11 0.11 0.13 0.13 0.12 0.16 0.16 0.17 0.16 0.12 0.10 0.10 0.09 0.07 0.04 0.02 0.01 0.01 0.01 0.00 0.00

GFSNW_prec_precacc24_057.txt.gz
Total_Precipitation_Accumulation
0.17 0.15 0.17 0.22 0.18 0.36 0.52 0.37 0.21 0.06 0.08 0.23 0.15 0.04 0.00 0.00 0.00 0.00 0.00 0.00 0.00 0.00 0.00 0.00 0.00 0.00 0.00 0.00 0.00 0.00 0.00 0.00 0.02 0.00 0.00 0.00 0.00 0.01 0.02 0.00 0.00 0.00 0.00 0.00
0.25 0.23 0.19 0.23 0.30 0.37 0.50 0.47 0.28 0.41 0.11 0.11 0.05 0.01 0.00 0.00 0.00 0.00 0.00 0.00 0.00 0.00 0.00 0.00 0.00 0.00 0.00 0.00 0.00 0.00 0.00 0.00 0.00 0.00 0.01 0.02 0.00 0.00 0.00 0.00 0.00 0.00 0.01 0.00
0.38 0.37 0.30 0.28 0.39 0.47 0.52 0.47 0.45 0.85 0.35 0.01 0.00 0.00 0.00 0.00 0.00 0.00 0.00 0.00 0.00 0.00 0.00 0.00 0.00 0.00 0.00 0.00 0.00 0.00 0.00 0.00 0.00 0.00 0.00 0.00 0.01 0.01 0.01 0.00 0.00 0.00 0.00 0.00
0.36 0.37 0.45 0.38 0.48 0.62 0.91 0.73 0.26 0.29 0.19 0.02 0.00 0.00 0.00 0.00 0.00 0.00 0.00 0.00 0.00 0.00 0.00 0.00 0.00 0.00 0.00 0.00 0.00 0.00 0.00 0.00 0.00 0.00 0.00 0.00 0.00 0.00 0.00 0.00 0.00 0.00 0.00 0.00
0.36 0.38 0.38 0.47 0.74 0.90 1.41 0.76 0.07 0.06 0.03 0.01 0.01 0.01 0.00 0.00 0.00 0.00 0.00 0.00 0.00 0.00 0.00 0.00 0.00 0.00 0.00 0.00 0.00 0.00 0.00 0.00 0.00 0.00 0.00 0.00 0.00 0.00 0.00 0.00 0.00 0.00 0.00 0.00
0.37 0.38 0.37 0.47 0.81 1.63 1.91 0.60 0.02 0.09 0.08 0.04 0.03 0.01 0.00 0.00 0.00 0.00 0.00 0.00 0.00 0.00 0.00 0.01 0.00 0.00 0.00 0.00 0.00 0.00 0.00 0.00 0.00 0.00 0.00 0.00 0.00 0.00 0.00 0.00 0.00 0.00 0.00 0.00
0.37 0.38 0.38 0.48 0.76 1.55 1.11 0.28 0.05 0.24 0.16 0.10 0.00 0.00 0.00 0.00 0.00 0.00 0.00 0.00 0.00 0.01 0.00 0.01 0.01 0.01 0.00 0.01 0.01 0.00 0.00 0.00 0.00 0.00 0.00 0.00 0.00 0.00 0.00 0.00 0.00 0.00 0.00 0.00
0.38 0.38 0.42 0.49 0.63 0.86 0.73 0.16 0.16 0.33 0.21 0.07 0.02 0.00 0.00 0.00 0.01 0.00 0.00 0.00 0.00 0.01 0.01 0.03 0.03 0.02 0.03 0.01 0.01 0.01 0.02 0.01 0.01 0.00 0.00 0.00 0.00 0.00 0.00 0.00 0.00 0.00 0.00 0.00
0.38 0.36 0.40 0.43 0.43 0.58 0.66 0.29 0.27 0.50 0.41 0.08 0.03 0.03 0.00 0.00 0.03 0.04 0.03 0.02 0.01 0.01 0.04 0.04 0.02 0.02 0.02 0.01 0.01 0.00 0.00 0.01 0.03 0.00 0.00 0.00 0.00 0.00 0.00 0.00 0.00 0.00 0.00 0.00
0.37 0.31 0.31 0.34 0.30 0.43 0.53 0.46 0.46 0.70 0.57 0.21 0.11 0.09 0.02 0.00 0.02 0.10 0.08 0.04 0.06 0.04 0.04 0.03 0.01 0.01 0.01 0.01 0.01 0.01 0.00 0.00 0.01 0.02 0.00 0.00 0.00 0.00 0.00 0.00 0.00 0.00 0.00 0.00
0.34 0.25 0.26 0.25 0.26 0.40 0.49 0.48 0.48 0.68 0.43 0.27 0.24 0.19 0.14 0.02 0.02 0.13 0.06 0.14 0.08 0.11 0.07 0.03 0.02 0.01 0.00 0.01 0.00 0.00 0.00 0.02 0.01 0.02 0.02 0.00 0.00 0.00 0.00 0.00 0.00 0.00 0.00 0.00
0.28 0.20 0.24 0.23 0.34 0.38 0.42 0.52 0.47 0.61 0.65 0.47 0.34 0.21 0.19 0.07 0.01 0.04 0.10 0.07 0.02 0.03 0.04 0.01 0.03 0.02 0.00 0.00 0.00 0.00 0.00 0.02 0.03 0.01 0.00 0.00 0.00 0.00 0.00 0.00 0.00 0.00 0.00 0.00
0.25 0.22 0.30 0.32 0.37 0.34 0.38 0.46 0.53 1.51 0.87 0.47 0.19 0.23 0.19 0.18 0.03 0.03 0.10 0.06 0.02 0.03 0.03 0.03 0.02 0.02 0.00 0.00 0.00 0.00 0.01 0.00 0.00 0.00 0.00 0.00 0.00 0.00 0.00 0.00 0.00 0.00 0.00 0.00
0.27 0.28 0.34 0.33 0.36 0.42 0.33 0.35 0.81 1.75 1.02 0.89 0.32 0.19 0.23 0.25 0.15 0.05 0.04 0.06 0.05 0.05 0.06 0.06 0.03 0.02 0.01 0.00 0.00 0.00 0.00 0.01 0.01 0.00 0.00 0.00 0.00 0.00 0.00 0.00 0.00 0.00 0.00 0.00
0.28 0.31 0.30 0.38 0.42 0.52 0.32 0.45 0.97 1.30 1.15 1.01 0.63 0.15 0.24 0.28 0.24 0.11 0.06 0.08 0.06 0.08 0.11 0.07 0.02 0.01 0.01 0.01 0.00 0.00 0.00 0.00 0.00 0.00 0.01 0.01 0.00 0.00 0.00 0.00 0.00 0.00 0.00 0.00
0.23 0.27 0.38 0.42 0.47 0.65 0.56 1.10 0.79 0.89 0.96 0.92 0.80 0.39 0.20 0.32 0.39 0.26 0.15 0.08 0.09 0.08 0.08 0.07 0.03 0.01 0.01 0.00 0.00 0.00 0.00 0.01 0.01 0.00 0.01 0.00 0.00 0.00 0.00 0.00 0.00 0.00 0.00 0.00
0.27 0.30 0.34 0.36 0.61 0.49 0.77 1.07 0.59 0.63 1.04 1.12 0.69 0.81 0.23 0.31 0.51 0.47 0.24 0.14 0.15 0.14 0.11 0.06 0.04 0.04 0.05 0.03 0.01 0.00 0.00 0.00 0.00 0.00 0.00 0.00 0.00 0.00 0.00 0.00 0.00 0.00 0.00 0.00
0.24 0.28 0.27 0.54 0.60 0.58 0.77 0.59 0.65 0.60 0.84 0.62 0.54 0.59 0.58 0.49 0.60 0.73 0.47 0.40 0.24 0.23 0.10 0.04 0.03 0.04 0.05 0.04 0.01 0.00 0.00 0.00 0.00 0.00 0.00 0.00 0.00 0.00 0.00 0.00 0.00 0.00 0.00 0.00
0.19 0.25 0.56 0.87 0.89 0.90 0.70 0.77 0.73 0.82 0.81 0.56 0.25 0.46 0.51 0.86 0.66 0.77 0.77 0.58 0.52 0.20 0.13 0.05 0.06 0.03 0.03 0.00 0.00 0.00 0.00 0.00 0.00 0.00 0.00 0.00 0.00 0.00 0.00 0.00 0.00 0.00 0.00 0.00
0.28 0.64 1.04 1.12 0.85 0.70 0.85 1.10 0.84 0.80 0.50 0.32 0.20 0.31 0.71 0.88 0.93 0.49 0.80 0.75 0.60 0.50 0.19 0.16 0.09 0.01 0.00 0.00 0.00 0.00 0.00 0.00 0.00 0.00 0.00 0.00 0.00 0.00 0.00 0.00 0.00 0.00 0.00 0.00
0.63 0.92 1.13 0.91 0.87 0.86 1.01 0.93 0.70 0.53 0.22 0.09 0.08 0.18 0.58 0.52 0.60 0.54 0.44 0.60 0.58 0.47 0.46 0.32 0.26 0.09 0.01 0.00 0.00 0.00 0.00 0.00 0.00 0.00 0.00 0.00 0.00 0.00 0.00 0.00 0.00 0.00 0.00 0.00
0.71 0.87 0.76 0.88 0.90 0.66 0.55 0.52 0.43 0.24 0.11 0.04 0.10 0.12 0.22 0.34 0.51 0.64 0.66 0.49 0.46 0.31 0.23 0.36 0.31 0.11 0.07 0.07 0.05 0.04 0.03 0.02 0.01 0.01 0.00 0.00 0.00 0.00 0.00 0.00 0.00 0.00 0.01 0.03
0.87 0.54 0.58 0.65 0.48 0.49 0.40 0.28 0.19 0.11 0.06 0.05 0.11 0.11 0.17 0.18 0.42 0.63 0.51 0.46 0.36 0.28 0.31 0.30 0.19 0.10 0.12 0.15 0.19 0.20 0.18 0.15 0.11 0.06 0.04 0.03 0.03 0.02 0.02 0.03 0.06 0.10 0.15 0.19
0.79 0.67 0.56 0.66 0.41 0.44 0.34 0.24 0.19 0.15 0.13 0.10 0.17 0.13 0.15 0.15 0.18 0.28 0.24 0.26 0.23 0.31 0.32 0.29 0.23 0.24 0.26 0.24 0.23 0.22 0.25 0.26 0.26 0.25 0.23 0.22 0.23 0.26 0.30 0.33 0.38 0.42 0.49 0.55
0.75 0.69 0.55 0.47 0.55 0.50 0.45 0.40 0.30 0.27 0.20 0.12 0.21 0.25 0.22 0.15 0.17 0.15 0.10 0.13 0.14 0.14 0.17 0.18 0.17 0.19 0.23 0.25 0.28 0.31 0.30 0.30 0.29 0.29 0.32 0.38 0.41 0.41 0.47 0.49 0.48 0.40 0.33 0.28
0.51 0.49 0.53 0.49 0.52 0.48 0.43 0.39 0.34 0.34 0.27 0.24 0.28 0.31 0.20 0.19 0.11 0.07 0.09 0.06 0.09 0.13 0.16 0.16 0.15 0.15 0.18 0.22 0.26 0.31 0.32 0.29 0.25 0.24 0.22 0.23 0.26 0.21 0.22 0.26 0.24 0.22 0.17 0.15
0.33 0.57 0.66 0.60 0.50 0.48 0.47 0.43 0.40 0.34 0.24 0.21 0.16 0.14 0.13 0.14 0.08 0.10 0.12 0.17 0.21 0.21 0.20 0.22 0.24 0.26 0.28 0.29 0.35 0.37 0.36 0.30 0.22 0.19 0.19 0.21 0.21 0.15 0.10 0.10 0.12 0.09 0.08 0.06

GFSNW_prec_precacc24_060.txt.gz
Total_Precipitation_Accumulation
0.17 0.16 0.19 0.24 0.19 0.29 0.47 0.43 0.24 0.07 0.12 0.31 0.24 0.05 0.00 0.00 0.00 0.00 0.00 0.00 0.00 0.00 0.00 0.00 0.00 0.00 0.00 0.00 0.00 0.00 0.00 0.00 0.02 0.00 0.00 0.00 0.00 0.01 0.02 0.00 0.00 0.01 0.02 0.01
0.29 0.22 0.20 0.26 0.30 0.31 0.53 0.59 0.26 0.36 0.14 0.13 0.06 0.01 0.00 0.00 0.00 0.00 0.00 0.00 0.00 0.00 0.00 0.00 0.00 0.00 0.00 0.00 0.00 0.00 0.00 0.00 0.00 0.00 0.01 0.02 0.00 0.00 0.00 0.00 0.00 0.01 0.07 0.01
0.37 0.43 0.35 0.29 0.40 0.42 0.60 0.60 0.50 0.85 0.38 0.02 0.00 0.00 0.00 0.00 0.00 0.00 0.00 0.00 0.00 0.00 0.00 0.00 0.00 0.00 0.00 0.00 0.00 0.00 0.00 0.00 0.00 0.00 0.00 0.00 0.01 0.01 0.01 0.00 0.00 0.00 0.01 0.00
0.34 0.36 0.55 0.52 0.46 0.57 1.07 1.04 0.39 0.31 0.20 0.03 0.00 0.00 0.00 0.00 0.00 0.00 0.00 0.00 0.01 0.00 0.00 0.01 0.00 0.00 0.00 0.00 0.00 0.00 0.00 0.00 0.00 0.00 0.00 0.00 0.00 0.00 0.00 0.00 0.00 0.00 0.00 0.00
0.35 0.37 0.39 0.68 0.84 0.84 1.56 1.19 0.14 0.06 0.03 0.01 0.01 0.01 0.00 0.00 0.00 0.00 0.00 0.00 0.00 0.00 0.00 0.01 0.01 0.00 0.01 0.00 0.00 0.00 0.00 0.00 0.00 0.00 0.00 0.00 0.00 0.00 0.00 0.00 0.00 0.00 0.00 0.00
0.37 0.39 0.36 0.44 0.97 1.69 2.34 1.08 0.06 0.11 0.08 0.05 0.04 0.01 0.00 0.00 0.00 0.00 0.00 0.00 0.00 0.01 0.00 0.03 0.11 0.05 0.02 0.00 0.00 0.00 0.00 0.00 0.00 0.00 0.00 0.00 0.00 0.00 0.00 0.00 0.00 0.00 0.00 0.00
0.38 0.40 0.37 0.40 0.61 1.77 1.70 0.63 0.06 0.29 0.20 0.13 0.02 0.00 0.00 0.00 0.00 0.00 0.00 0.00 0.00 0.01 0.01 0.04 0.17 0.10 0.04 0.02 0.01 0.01 0.00 0.00 0.00 0.00 0.00 0.00 0.00 0.00 0.00 0.00 0.00 0.00 0.00 0.00
0.43 0.39 0.38 0.39 0.42 0.91 1.34 0.34 0.09 0.31 0.22 0.08 0.03 0.00 0.00 0.00 0.01 0.00 0.00 0.00 0.00 0.01 0.04 0.06 0.12 0.14 0.08 0.02 0.01 0.01 0.02 0.03 0.05 0.02 0.01 0.00 0.00 0.00 0.00 0.00 0.00 0.00 0.00 0.00
0.43 0.41 0.37 0.32 0.31 0.57 0.97 0.57 0.20 0.41 0.41 0.09 0.03 0.04 0.01 0.01 0.02 0.03 0.03 0.02 0.01 0.01 0.06 0.09 0.05 0.03 0.03 0.02 0.01 0.00 0.00 0.02 0.08 0.04 0.01 0.00 0.00 0.00 0.00 0.00 0.00 0.00 0.00 0.00
0.39 0.33 0.36 0.27 0.28 0.46 0.60 0.64 0.37 0.58 0.56 0.21 0.12 0.11 0.03 0.01 0.02 0.09 0.08 0.04 0.08 0.09 0.08 0.03 0.01 0.01 0.01 0.01 0.01 0.01 0.04 0.02 0.02 0.06 0.04 0.00 0.00 0.00 0.00 0.00 0.00 0.00 0.00 0.00
0.35 0.24 0.29 0.28 0.31 0.47 0.47 0.48 0.43 0.61 0.43 0.29 0.26 0.22 0.15 0.02 0.02 0.13 0.07 0.16 0.13 0.22 0.12 0.04 0.02 0.00 0.00 0.01 0.00 0.00 0.02 0.06 0.04 0.05 0.06 0.01 0.00 0.00 0.00 0.00 0.00 0.00 0.00 0.00
0.27 0.21 0.25 0.28 0.39 0.44 0.38 0.46 0.47 0.50 0.65 0.55 0.39 0.25 0.23 0.08 0.01 0.05 0.10 0.09 0.04 0.06 0.06 0.01 0.02 0.02 0.01 0.01 0.01 0.00 0.01 0.02 0.04 0.02 0.00 0.00 0.00 0.00 0.00 0.00 0.00 0.00 0.00 0.00
0.26 0.24 0.28 0.34 0.42 0.37 0.32 0.38 0.49 1.26 0.99 0.50 0.21 0.24 0.19 0.18 0.03 0.05 0.19 0.07 0.02 0.03 0.03 0.03 0.03 0.02 0.00 0.00 0.00 0.00 0.01 0.00 0.00 0.01 0.01 0.01 0.00 0.00 0.00 0.00 0.00 0.00 0.00 0.00
0.28 0.27 0.33 0.37 0.42 0.44 0.25 0.29 0.78 1.78 1.06 0.87 0.33 0.21 0.25 0.25 0.16 0.05 0.08 0.10 0.07 0.06 0.06 0.06 0.07 0.03 0.01 0.00 0.00 0.00 0.00 0.01 0.01 0.00 0.00 0.00 0.00 0.00 0.00 0.00 0.00 0.00 0.00 0.00
0.28 0.30 0.32 0.46 0.53 0.59 0.34 0.45 0.99 1.30 1.15 1.00 0.66 0.17 0.25 0.28 0.25 0.12 0.08 0.10 0.11 0.14 0.19 0.09 0.05 0.01 0.01 0.01 0.00 0.00 0.00 0.00 0.00 0.00 0.01 0.01 0.00 0.00 0.00 0.00 0.00 0.00 0.00 0.00
0.25 0.31 0.44 0.50 0.57 0.71 0.61 1.15 0.83 0.90 0.96 0.93 0.83 0.40 0.20 0.33 0.40 0.28 0.17 0.12 0.13 0.14 0.14 0.10 0.03 0.01 0.01 0.00 0.00 0.00 0.00 0.01 0.01 0.00 0.01 0.00 0.00 0.00 0.00 0.00 0.00 0.00 0.00 0.00
0.35 0.37 0.39 0.38 0.61 0.47 0.72 1.09 0.61 0.62 1.03 1.10 0.68 0.81 0.25 0.34 0.52 0.47 0.24 0.15 0.17 0.21 0.20 0.10 0.04 0.04 0.05 0.03 0.00 0.00 0.00 0.00 0.00 0.00 0.00 0.00 0.00 0.00 0.00 0.00 0.00 0.00 0.00 0.00
0.32 0.35 0.34 0.60 0.62 0.57 0.73 0.57 0.64 0.59 0.84 0.62 0.52 0.58 0.60 0.53 0.61 0.73 0.47 0.41 0.29 0.28 0.18 0.10 0.05 0.06 0.08 0.05 0.01 0.00 0.00 0.00 0.00 0.00 0.00 0.00 0.00 0.00 0.00 0.00 0.00 0.00 0.00 0.00
0.24 0.30 0.61 0.89 0.90 0.91 0.70 0.75 0.72 0.83 0.80 0.53 0.25 0.48 0.65 0.94 0.67 0.78 0.79 0.63 0.60 0.25 0.18 0.09 0.11 0.08 0.09 0.02 0.00 0.00 0.00 0.00 0.00 0.00 0.00 0.00 0.00 0.00 0.00 0.00 0.00 0.00 0.00 0.00
0.28 0.64 1.01 1.07 0.83 0.69 0.85 1.11 0.82 0.76 0.50 0.32 0.20 0.32 0.83 1.16 1.06 0.64 0.87 0.88 0.65 0.54 0.22 0.23 0.14 0.06 0.02 0.00 0.00 0.00 0.00 0.00 0.00 0.00 0.00 0.00 0.00 0.00 0.00 0.00 0.00 0.00 0.00 0.00
0.60 0.90 1.13 0.91 0.87 0.89 1.06 0.96 0.68 0.50 0.23 0.09 0.09 0.19 0.65 0.87 1.06 0.74 0.52 0.77 0.65 0.49 0.50 0.40 0.32 0.13 0.02 0.00 0.00 0.00 0.00 0.00 0.00 0.00 0.00 0.00 0.00 0.00 0.00 0.00 0.00 0.00 0.00 0.00
0.70 0.88 0.76 0.88 0.93 0.70 0.58 0.55 0.45 0.26 0.16 0.08 0.12 0.13 0.30 0.64 1.00 0.97 0.81 0.67 0.51 0.34 0.25 0.43 0.40 0.16 0.07 0.07 0.06 0.04 0.03 0.02 0.01 0.01 0.00 0.00 0.00 0.00 0.00 0.00 0.00 0.00 0.01 0.03
0.93 0.56 0.57 0.66 0.50 0.48 0.41 0.29 0.20 0.13 0.10 0.07 0.14 0.13 0.24 0.35 0.69 1.02 0.68 0.68 0.43 0.39 0.41 0.40 0.25 0.13 0.13 0.16 0.19 0.21 0.18 0.15 0.11 0.06 0.04 0.03 0.03 0.02 0.02 0.03 0.06 0.10 0.15 0.20
0.79 0.67 0.55 0.69 0.43 0.46 0.36 0.25 0.20 0.16 0.13 0.10 0.19 0.15 0.19 0.18 0.28 0.52 0.36 0.42 0.31 0.42 0.39 0.35 0.26 0.28 0.29 0.25 0.24 0.25 0.30 0.32 0.31 0.29 0.27 0.26 0.25 0.29 0.33 0.37 0.43 0.46 0.56 0.67
0.74 0.68 0.54 0.47 0.58 0.51 0.45 0.41 0.30 0.27 0.20 0.12 0.22 0.26 0.26 0.18 0.24 0.23 0.14 0.14 0.16 0.16 0.21 0.21 0.21 0.25 0.26 0.28 0.32 0.36 0.38 0.39 0.37 0.38 0.40 0.45 0.48 0.47 0.55 0.59 0.58 0.49 0.46 0.43
0.40 0.45 0.57 0.51 0.54 0.48 0.44 0.40 0.34 0.34 0.28 0.27 0.35 0.42 0.28 0.21 0.13 0.08 0.10 0.07 0.11 0.16 0.20 0.21 0.19 0.19 0.23 0.28 0.32 0.38 0.39 0.36 0.32 0.31 0.30 0.31 0.33 0.29 0.30 0.35 0.33 0.32 0.26 0.25
0.34 0.57 0.66 0.62 0.52 0.50 0.48 0.45 0.41 0.37 0.28 0.28 0.23 0.20 0.17 0.16 0.08 0.11 0.13 0.20 0.25 0.26 0.24 0.27 0.29 0.30 0.33 0.35 0.41 0.44 0.42 0.35 0.29 0.26 0.26 0.28 0.28 0.20 0.13 0.16 0.21 0.16 0.15 0.13

GFSNW_prec_precacc24_063.txt.gz
Total_Precipitation_Accumulation
0.15 0.14 0.17 0.24 0.20 0.31 0.54 0.51 0.32 0.08 0.13 0.34 0.26 0.05 0.00 0.00 0.00 0.00 0.00 0.00 0.00 0.00 0.00 0.00 0.01 0.00 0.00 0.00 0.00 0.00 0.00 0.00 0.00 0.00 0.00 0.00 0.00 0.00 0.01 0.00 0.00 0.01 0.02 0.01
0.28 0.21 0.20 0.27 0.31 0.35 0.66 0.78 0.32 0.35 0.16 0.16 0.07 0.01 0.00 0.00 0.00 0.00 0.00 0.00 0.00 0.00 0.00 0.00 0.00 0.00 0.00 0.00 0.00 0.00 0.00 0.00 0.00 0.00 0.00 0.01 0.00 0.00 0.00 0.00 0.00 0.01 0.08 0.01
0.36 0.43 0.35 0.32 0.45 0.50 0.77 0.87 0.64 0.82 0.49 0.03 0.00 0.00 0.00 0.00 0.00 0.00 0.00 0.00 0.00 0.00 0.00 0.00 0.00 0.00 0.00 0.00 0.00 0.00 0.00 0.00 0.00 0.00 0.00 0.00 0.00 0.00 0.01 0.00 0.01 0.00 0.01 0.00
0.33 0.38 0.56 0.55 0.52 0.69 1.27 1.43 0.51 0.32 0.29 0.07 0.00 0.00 0.00 0.00 0.00 0.00 0.00 0.00 0.01 0.00 0.00 0.01 0.00 0.01 0.02 0.00 0.00 0.00 0.00 0.00 0.00 0.00 0.00 0.00 0.00 0.00 0.00 0.00 0.00 0.01 0.00 0.00
0.34 0.37 0.39 0.69 0.90 1.00 1.79 1.54 0.21 0.06 0.02 0.01 0.02 0.02 0.00 0.00 0.00 0.00 0.00 0.00 0.00 0.00 0.00 0.01 0.03 0.03 0.07 0.05 0.00 0.00 0.00 0.00 0.00 0.00 0.00 0.00 0.00 0.00 0.00 0.00 0.00 0.00 0.00 0.00
0.37 0.39 0.35 0.43 0.96 1.83 2.79 1.49 0.08 0.08 0.06 0.06 0.05 0.02 0.00 0.00 0.00 0.00 0.00 0.00 0.00 0.01 0.00 0.03 0.12 0.06 0.05 0.10 0.10 0.01 0.00 0.00 0.00 0.00 0.00 0.00 0.00 0.00 0.00 0.00 0.00 0.00 0.00 0.00
0.38 0.39 0.36 0.38 0.58 1.86 2.14 0.99 0.08 0.26 0.25 0.14 0.02 0.00 0.00 0.00 0.00 0.00 0.00 0.00 0.00 0.01 0.01 0.05 0.18 0.11 0.05 0.13 0.09 0.11 0.01 0.00 0.00 0.00 0.00 0.01 0.00 0.00 0.00 0.00 0.00 0.00 0.00 0.00
0.44 0.39 0.37 0.38 0.41 0.89 1.69 0.75 0.08 0.23 0.22 0.07 0.03 0.00 0.00 0.00 0.01 0.00 0.00 0.00 0.00 0.01 0.03 0.09 0.19 0.18 0.13 0.12 0.22 0.17 0.02 0.03 0.07 0.02 0.01 0.00 0.00 0.00 0.00 0.00 0.00 0.00 0.00 0.00
0.42 0.43 0.40 0.32 0.31 0.57 1.08 1.00 0.34 0.35 0.35 0.09 0.03 0.04 0.01 0.01 0.02 0.02 0.00 0.00 0.00 0.01 0.07 0.13 0.11 0.15 0.09 0.08 0.08 0.19 0.16 0.03 0.09 0.08 0.02 0.00 0.00 0.00 0.00 0.00 0.00 0.00 0.00 0.00
0.34 0.31 0.37 0.32 0.30 0.47 0.63 0.83 0.51 0.62 0.57 0.23 0.13 0.12 0.03 0.00 0.02 0.04 0.01 0.01 0.06 0.09 0.12 0.07 0.02 0.02 0.03 0.04 0.03 0.07 0.14 0.08 0.05 0.08 0.09 0.01 0.00 0.00 0.00 0.00 0.00 0.00 0.00 0.00
0.32 0.24 0.30 0.33 0.36 0.52 0.52 0.56 0.43 0.78 0.52 0.29 0.28 0.24 0.16 0.03 0.04 0.06 0.02 0.11 0.13 0.26 0.16 0.07 0.03 0.01 0.00 0.02 0.00 0.00 0.02 0.07 0.08 0.10 0.08 0.02 0.00 0.00 0.00 0.00 0.00 0.00 0.00 0.00
0.29 0.22 0.27 0.35 0.48 0.58 0.52 0.54 0.48 0.66 0.66 0.51 0.39 0.26 0.24 0.09 0.03 0.04 0.02 0.05 0.04 0.08 0.14 0.05 0.03 0.02 0.01 0.01 0.01 0.00 0.01 0.02 0.04 0.03 0.01 0.01 0.01 0.00 0.00 0.00 0.00 0.00 0.00 0.00
0.31 0.28 0.31 0.42 0.54 0.55 0.53 0.39 0.40 1.09 0.97 0.39 0.23 0.25 0.19 0.19 0.06 0.07 0.17 0.04 0.02 0.05 0.04 0.11 0.07 0.03 0.01 0.00 0.00 0.00 0.01 0.00 0.00 0.01 0.01 0.01 0.01 0.02 0.00 0.00 0.00 0.00 0.00 0.01
0.36 0.33 0.37 0.45 0.54 0.60 0.35 0.25 0.40 0.88 0.78 0.59 0.24 0.25 0.26 0.23 0.15 0.06 0.08 0.10 0.07 0.08 0.12 0.13 0.19 0.06 0.01 0.00 0.00 0.00 0.00 0.01 0.03 0.02 0.00 0.01 0.00 0.01 0.06 0.04 0.00 0.00 0.00 0.00
0.33 0.33 0.34 0.51 0.62 0.53 0.31 0.25 0.47 0.60 0.72 0.63 0.42 0.20 0.28 0.25 0.24 0.12 0.08 0.10 0.12 0.17 0.38 0.31 0.09 0.02 0.01 0.01 0.00 0.00 0.00 0.00 0.01 0.03 0.01 0.02 0.00 0.00 0.00 0.00 0.00 0.00 0.00 0.00
0.24 0.30 0.45 0.50 0.47 0.53 0.53 0.64 0.48 0.64 0.72 0.62 0.75 0.41 0.19 0.32 0.38 0.28 0.17 0.11 0.13 0.18 0.24 0.31 0.14 0.03 0.03 0.02 0.00 0.00 0.00 0.01 0.01 0.00 0.01 0.00 0.00 0.00 0.00 0.00 0.00 0.00 0.00 0.00
0.34 0.38 0.38 0.35 0.38 0.56 0.38 0.54 0.33 0.43 0.89 1.00 0.67 0.82 0.25 0.33 0.52 0.47 0.24 0.15 0.18 0.23 0.29 0.22 0.10 0.06 0.09 0.05 0.00 0.00 0.00 0.00 0.00 0.00 0.00 0.00 0.00 0.00 0.00 0.00 0.00 0.00 0.00 0.00
0.38 0.44 0.43 0.50 0.59 0.49 0.55 0.50 0.63 0.54 0.79 0.60 0.51 0.59 0.62 0.55 0.61 0.72 0.47 0.41 0.29 0.33 0.25 0.20 0.21 0.10 0.12 0.10 0.03 0.00 0.00 0.00 0.00 0.00 0.00 0.00 0.00 0.00 0.00 0.00 0.00 0.00 0.00 0.00
0.31 0.34 0.46 0.62 0.67 0.70 0.67 0.76 0.73 0.82 0.79 0.52 0.24 0.48 0.65 0.97 0.69 0.79 0.80 0.64 0.62 0.31 0.25 0.16 0.28 0.25 0.16 0.03 0.00 0.00 0.00 0.00 0.00 0.00 0.00 0.00 0.00 0.00 0.00 0.00 0.00 0.00 0.00 0.00
0.27 0.58 0.78 0.91 0.68 0.67 0.85 1.11 0.82 0.76 0.50 0.33 0.20 0.31 0.83 1.20 1.15 0.66 0.93 0.92 0.66 0.56 0.25 0.30 0.24 0.24 0.08 0.01 0.00 0.00 0.00 0.00 0.00 0.00 0.00 0.00 0.00 0.00 0.00 0.00 0.00 0.00 0.00 0.00
0.58 0.79 1.04 0.80 0.80 0.89 1.06 0.96 0.68 0.48 0.21 0.09 0.09 0.19 0.65 0.87 1.07 0.74 0.56 0.78 0.65 0.50 0.52 0.45 0.41 0.20 0.08 0.06 0.02 0.00 0.00 0.00 0.00 0.00 0.00 0.00 0.00 0.00 0.00 0.00 0.00 0.00 0.00 0.00
0.65 0.84 0.73 0.82 0.89 0.70 0.58 0.56 0.46 0.26 0.20 0.13 0.14 0.14 0.30 0.68 1.04 1.00 0.82 0.74 0.63 0.36 0.29 0.52 0.55 0.24 0.08 0.08 0.06 0.04 0.03 0.02 0.01 0.01 0.00 0.00 0.00 0.00 0.00 0.00 0.00 0.00 0.01 0.03
0.94 0.56 0.54 0.63 0.47 0.48 0.42 0.29 0.21 0.16 0.26 0.10 0.20 0.16 0.30 0.50 0.90 1.16 0.77 0.83 0.70 0.45 0.43 0.46 0.31 0.17 0.16 0.18 0.20 0.21 0.19 0.15 0.11 0.07 0.04 0.03 0.03 0.02 0.02 0.04 0.07 0.10 0.16 0.21
0.79 0.66 0.53 0.68 0.42 0.47 0.38 0.27 0.21 0.16 0.13 0.09 0.33 0.20 0.27 0.37 0.61 0.80 0.58 0.71 0.70 0.62 0.45 0.40 0.30 0.31 0.31 0.28 0.26 0.26 0.32 0.34 0.32 0.32 0.29 0.28 0.28 0.31 0.36 0.40 0.47 0.48 0.61 0.73
0.73 0.67 0.53 0.48 0.60 0.53 0.45 0.41 0.31 0.28 0.20 0.14 0.27 0.31 0.34 0.39 0.51 0.52 0.37 0.36 0.29 0.24 0.30 0.27 0.29 0.32 0.31 0.33 0.36 0.39 0.41 0.43 0.42 0.43 0.44 0.50 0.52 0.50 0.60 0.65 0.63 0.54 0.51 0.48
0.35 0.42 0.55 0.50 0.53 0.47 0.43 0.40 0.34 0.34 0.29 0.28 0.39 0.43 0.30 0.25 0.16 0.15 0.15 0.12 0.15 0.22 0.29 0.27 0.26 0.27 0.31 0.36 0.38 0.44 0.44 0.41 0.37 0.37 0.34 0.35 0.38 0.33 0.36 0.41 0.39 0.38 0.31 0.30
0.27 0.47 0.57 0.55 0.47 0.48 0.47 0.45 0.42 0.38 0.29 0.29 0.24 0.20 0.19 0.17 0.09 0.11 0.15 0.23 0.29 0.29 0.28 0.31 0.33 0.34 0.38 0.42 0.46 0.50 0.48 0.41 0.35 0.31 0.31 0.33 0.33 0.23 0.14 0.19 0.27 0.20 0.19 0.17

GFSNW_prec_precacc24_069.txt.gz
Total_Precipitation_Accumulation
0.11 0.12 0.17 0.25 0.20 0.38 0.99 1.20 0.60 0.10 0.14 0.39 0.26 0.05 0.00 0.00 0.00 0.00 0.00 0.00 0.00 0.00 0.00 0.00 0.01 0.00 0.00 0.00 0.00 0.00 0.00 0.00 0.00 0.00 0.00 0.00 0.00 0.00 0.00 0.00 0.00 0.01 0.02 0.01
0.25 0.20 0.22 0.30 0.33 0.52 1.30 1.55 0.55 0.38 0.16 0.19 0.07 0.01 0.00 0.00 0.00 0.00 0.00 0.00 0.00 0.00 0.00 0.00 0.00 0.00 0.00 0.00 0.00 0.00 0.00 0.00 0.00 0.00 0.00 0.00 0.00 0.00 0.00 0.00 0.00 0.01 0.08 0.01
0.31 0.42 0.39 0.38 0.53 0.69 1.52 1.69 0.91 0.94 0.56 0.03 0.00 0.00 0.00 0.00 0.00 0.00 0.00 0.00 0.00 0.00 0.00 0.00 0.00 0.00 0.00 0.00 0.00 0.00 0.00 0.00 0.00 0.00 0.00 0.00 0.00 0.00 0.00 0.00 0.01 0.00 0.01 0.00
0.28 0.36 0.55 0.61 0.58 0.90 2.18 2.32 0.70 0.38 0.37 0.12 0.00 0.00 0.00 0.00 0.00 0.00 0.00 0.00 0.01 0.00 0.00 0.01 0.00 0.01 0.02 0.00 0.00 0.00 0.01 0.01 0.00 0.00 0.00 0.00 0.00 0.00 0.00 0.00 0.00 0.01 0.00 0.00
0.33 0.34 0.39 0.73 0.92 1.22 2.81 2.40 0.29 0.06 0.02 0.02 0.03 0.02 0.00 0.00 0.00 0.00 0.00 0.00 0.00 0.00 0.00 0.01 0.03 0.03 0.07 0.05 0.01 0.01 0.02 0.01 0.00 0.00 0.00 0.00 0.00 0.00 0.00 0.00 0.00 0.00 0.00 0.00
0.36 0.39 0.35 0.46 0.97 1.92 3.59 2.12 0.14 0.07 0.06 0.05 0.08 0.03 0.00 0.00 0.00 0.00 0.00 0.00 0.00 0.01 0.00 0.03 0.13 0.07 0.05 0.11 0.12 0.06 0.06 0.08 0.04 0.01 0.00 0.00 0.01 0.00 0.00 0.00 0.00 0.00 0.00 0.00
0.41 0.42 0.38 0.43 0.62 1.78 2.42 1.41 0.14 0.30 0.34 0.13 0.02 0.00 0.00 0.00 0.00 0.00 0.00 0.00 0.00 0.01 0.01 0.07 0.21 0.12 0.05 0.14 0.10 0.16 0.16 0.11 0.14 0.07 0.02 0.10 0.03 0.00 0.00 0.00 0.00 0.00 0.00 0.00
0.48 0.43 0.40 0.41 0.48 0.82 1.76 1.16 0.27 0.20 0.22 0.07 0.02 0.00 0.00 0.00 0.01 0.00 0.00 0.00 0.00 0.00 0.03 0.08 0.17 0.17 0.13 0.11 0.21 0.20 0.15 0.19 0.28 0.14 0.07 0.05 0.00 0.00 0.00 0.00 0.00 0.00 0.00 0.00
0.44 0.47 0.43 0.34 0.33 0.53 1.03 1.30 0.63 0.41 0.30 0.10 0.02 0.03 0.01 0.01 0.01 0.02 0.00 0.00 0.00 0.00 0.03 0.10 0.11 0.15 0.10 0.08 0.08 0.21 0.35 0.23 0.24 0.25 0.15 0.07 0.00 0.00 0.00 0.00 0.00 0.00 0.00 0.00
0.35 0.33 0.40 0.36 0.31 0.44 0.57 0.93 0.61 1.00 0.81 0.17 0.10 0.11 0.03 0.00 0.01 0.03 0.01 0.00 0.03 0.06 0.08 0.05 0.02 0.02 0.04 0.05 0.04 0.08 0.23 0.35 0.31 0.27 0.21 0.04 0.00 0.00 0.00 0.01 0.01 0.00 0.00 0.00
0.32 0.25 0.30 0.36 0.41 0.54 0.52 0.61 0.40 0.85 0.94 0.25 0.21 0.22 0.16 0.03 0.03 0.05 0.02 0.07 0.08 0.17 0.10 0.05 0.02 0.01 0.01 0.02 0.01 0.01 0.05 0.17 0.25 0.30 0.26 0.10 0.02 0.06 0.07 0.02 0.00 0.00 0.00 0.00
0.32 0.26 0.27 0.36 0.51 0.65 0.64 0.75 0.48 0.56 0.78 0.48 0.32 0.22 0.23 0.09 0.03 0.03 0.01 0.03 0.02 0.05 0.10 0.04 0.02 0.02 0.01 0.01 0.01 0.00 0.02 0.02 0.05 0.07 0.05 0.01 0.03 0.08 0.09 0.04 0.01 0.01 0.00 0.00
0.32 0.33 0.36 0.44 0.56 0.62 0.97 0.60 0.40 1.03 1.19 0.50 0.25 0.22 0.17 0.19 0.06 0.05 0.17 0.04 0.02 0.03 0.03 0.09 0.07 0.04 0.01 0.01 0.00 0.00 0.01 0.00 0.01 0.01 0.01 0.01 0.01 0.02 0.01 0.00 0.01 0.01 0.00 0.01
0.38 0.35 0.46 0.50 0.56 0.63 0.88 0.62 0.31 0.77 0.83 0.47 0.22 0.17 0.16 0.19 0.15 0.04 0.08 0.08 0.07 0.11 0.18 0.15 0.20 0.08 0.02 0.01 0.01 0.00 0.00 0.02 0.03 0.02 0.00 0.01 0.01 0.02 0.06 0.04 0.00 0.00 0.00 0.00
0.39 0.36 0.40 0.64 0.67 0.61 0.69 0.42 0.36 0.42 0.70 0.39 0.23 0.18 0.17 0.16 0.23 0.13 0.09 0.09 0.11 0.18 0.43 0.41 0.12 0.06 0.05 0.03 0.04 0.01 0.01 0.02 0.05 0.05 0.03 0.03 0.01 0.01 0.01 0.00 0.00 0.00 0.00 0.00
0.30 0.29 0.48 0.67 0.63 0.68 0.74 0.89 0.61 0.47 0.63 0.72 0.33 0.20 0.10 0.20 0.29 0.25 0.14 0.09 0.10 0.21 0.31 0.41 0.28 0.11 0.15 0.08 0.02 0.01 0.02 0.05 0.03 0.02 0.03 0.02 0.02 0.00 0.00 0.00 0.00 0.00 0.00 0.00
0.30 0.39 0.47 0.62 0.61 0.56 0.33 0.45 0.24 0.21 0.64 1.03 0.61 0.22 0.16 0.18 0.33 0.30 0.13 0.08 0.11 0.20 0.32 0.30 0.16 0.11 0.24 0.23 0.08 0.02 0.02 0.04 0.05 0.04 0.03 0.02 0.00 0.00 0.00 0.00 0.00 0.00 0.00 0.00
0.50 0.65 0.68 0.74 0.66 0.37 0.13 0.06 0.06 0.12 0.42 0.65 0.58 0.34 0.34 0.34 0.45 0.35 0.23 0.15 0.18 0.26 0.25 0.23 0.28 0.19 0.25 0.24 0.10 0.02 0.01 0.02 0.03 0.02 0.02 0.02 0.02 0.01 0.01 0.01 0.01 0.01 0.01 0.00
0.47 0.53 0.60 0.71 0.59 0.32 0.14 0.22 0.18 0.13 0.31 0.28 0.22 0.31 0.51 0.60 0.48 0.53 0.40 0.34 0.30 0.23 0.22 0.17 0.35 0.38 0.43 0.19 0.04 0.01 0.00 0.00 0.00 0.00 0.00 0.02 0.03 0.03 0.02 0.01 0.01 0.00 0.00 0.00
0.26 0.32 0.39 0.75 0.42 0.18 0.40 0.69 0.47 0.21 0.14 0.15 0.10 0.26 0.69 1.02 0.96 0.49 0.63 0.64 0.35 0.29 0.15 0.32 0.28 0.48 0.32 0.10 0.04 0.01 0.00 0.00 0.00 0.00 0.00 0.00 0.02 0.02 0.01 0.01 0.01 0.01 0.00 0.00
0.12 0.22 0.45 0.35 0.31 0.34 0.54 0.46 0.29 0.16 0.09 0.03 0.03 0.17 0.58 0.78 0.95 0.65 0.49 0.61 0.57 0.47 0.45 0.44 0.47 0.33 0.19 0.15 0.10 0.03 0.01 0.01 0.00 0.00 0.00 0.00 0.00 0.01 0.00 0.00 0.00 0.00 0.00 0.00
0.34 0.44 0.26 0.32 0.35 0.29 0.27 0.32 0.30 0.16 0.16 0.12 0.14 0.14 0.30 0.61 0.98 0.92 0.80 0.90 0.78 0.40 0.32 0.54 0.59 0.31 0.12 0.08 0.08 0.06 0.04 0.02 0.02 0.02 0.02 0.02 0.04 0.05 0.05 0.04 0.04 0.03 0.03 0.04
0.68 0.25 0.16 0.29 0.25 0.35 0.35 0.26 0.21 0.22 0.39 0.14 0.22 0.16 0.30 0.50 0.92 1.17 0.80 0.94 1.01 0.57 0.50 0.50 0.35 0.22 0.17 0.19 0.21 0.22 0.20 0.16 0.12 0.08 0.06 0.04 0.04 0.04 0.05 0.07 0.11 0.14 0.19 0.26
0.43 0.39 0.42 0.61 0.41 0.49 0.39 0.29 0.24 0.21 0.18 0.17 0.50 0.25 0.35 0.49 0.74 0.93 0.73 0.79 0.78 0.83 0.52 0.43 0.34 0.37 0.35 0.31 0.29 0.28 0.34 0.37 0.35 0.36 0.34 0.33 0.33 0.38 0.44 0.50 0.59 0.58 0.73 0.91
0.60 0.63 0.53 0.48 0.63 0.53 0.45 0.41 0.32 0.28 0.23 0.28 0.48 0.50 0.50 0.55 0.69 0.62 0.49 0.45 0.37 0.32 0.33 0.31 0.35 0.38 0.35 0.37 0.41 0.44 0.47 0.50 0.50 0.52 0.52 0.59 0.61 0.58 0.71 0.79 0.77 0.65 0.63 0.62
0.35 0.41 0.54 0.49 0.52 0.44 0.40 0.36 0.32 0.33 0.31 0.36 0.48 0.52 0.38 0.35 0.31 0.25 0.22 0.17 0.19 0.28 0.40 0.36 0.36 0.37 0.41 0.46 0.49 0.55 0.57 0.52 0.48 0.47 0.44 0.44 0.46 0.42 0.46 0.50 0.47 0.47 0.38 0.38
0.24 0.41 0.49 0.49 0.43 0.44 0.44 0.41 0.39 0.37 0.30 0.30 0.26 0.22 0.24 0.19 0.11 0.20 0.24 0.32 0.40 0.40 0.48 0.54 0.50 0.52 0.59 0.59 0.61 0.65 0.60 0.51 0.47 0.42 0.40 0.43 0.43 0.28 0.17 0.25 0.36 0.26 0.24 0.22

GFSNW_prec_precacc24_075.txt.gz
Total_Precipitation_Accumulation
0.09 0.10 0.13 0.16 0.17 0.29 1.05 1.56 1.00 0.19 0.15 0.59 0.42 0.09 0.00 0.00 0.00 0.00 0.00 0.00 0.00 0.00 0.00 0.00 0.01 0.00 0.00 0.00 0.00 0.00 0.00 0.00 0.00 0.00 0.00 0.00 0.00 0.00 0.00 0.00 0.00 0.01 0.02 0.01
0.20 0.17 0.19 0.23 0.25 0.50 1.40 2.02 0.88 0.56 0.16 0.31 0.14 0.03 0.00 0.00 0.00 0.00 0.00 0.00 0.00 0.00 0.00 0.00 0.00 0.00 0.00 0.00 0.00 0.00 0.00 0.00 0.00 0.00 0.00 0.00 0.00 0.00 0.00 0.00 0.00 0.01 0.08 0.01
0.20 0.33 0.34 0.35 0.41 0.67 1.72 2.28 1.28 1.26 0.91 0.07 0.01 0.01 0.01 0.00 0.00 0.00 0.00 0.00 0.00 0.00 0.00 0.00 0.00 0.00 0.00 0.00 0.00 0.00 0.00 0.00 0.00 0.00 0.00 0.00 0.00 0.00 0.00 0.00 0.01 0.00 0.01 0.00
0.11 0.23 0.47 0.57 0.55 0.86 2.49 3.02 1.08 0.54 0.59 0.19 0.01 0.00 0.00 0.00 0.00 0.00 0.00 0.00 0.01 0.00 0.00 0.01 0.00 0.01 0.02 0.00 0.00 0.00 0.02 0.01 0.00 0.00 0.00 0.00 0.00 0.00 0.00 0.00 0.00 0.01 0.00 0.00
0.10 0.16 0.31 0.69 0.93 1.25 3.11 2.97 0.48 0.13 0.07 0.03 0.06 0.04 0.02 0.00 0.00 0.00 0.00 0.00 0.00 0.00 0.00 0.01 0.03 0.03 0.07 0.05 0.01 0.01 0.02 0.01 0.00 0.00 0.00 0.00 0.00 0.00 0.00 0.00 0.00 0.00 0.00 0.00
0.13 0.20 0.29 0.44 1.01 2.01 3.85 2.35 0.22 0.15 0.12 0.07 0.16 0.07 0.01 0.00 0.00 0.00 0.00 0.00 0.00 0.01 0.00 0.02 0.13 0.07 0.05 0.11 0.12 0.06 0.07 0.08 0.05 0.02 0.00 0.00 0.01 0.00 0.00 0.00 0.00 0.00 0.00 0.00
0.22 0.28 0.32 0.44 0.68 1.94 2.67 1.48 0.16 0.39 0.50 0.16 0.05 0.00 0.00 0.00 0.00 0.00 0.00 0.00 0.00 0.01 0.01 0.07 0.21 0.12 0.05 0.14 0.11 0.18 0.18 0.13 0.14 0.07 0.02 0.11 0.04 0.00 0.00 0.00 0.00 0.00 0.00 0.00
0.34 0.39 0.39 0.46 0.58 1.00 1.99 1.30 0.31 0.17 0.28 0.13 0.04 0.00 0.00 0.00 0.01 0.00 0.00 0.00 0.00 0.00 0.03 0.09 0.17 0.17 0.13 0.11 0.22 0.21 0.17 0.21 0.33 0.16 0.07 0.05 0.00 0.00 0.00 0.00 0.00 0.00 0.00 0.00
0.32 0.47 0.47 0.45 0.46 0.71 1.27 1.45 0.75 0.43 0.28 0.15 0.02 0.02 0.01 0.01 0.02 0.03 0.00 0.01 0.01 0.01 0.06 0.13 0.13 0.15 0.09 0.09 0.09 0.22 0.36 0.25 0.29 0.29 0.17 0.07 0.00 0.00 0.00 0.00 0.00 0.00 0.00 0.00
0.25 0.34 0.48 0.49 0.46 0.64 0.85 1.13 0.71 1.22 0.90 0.16 0.08 0.11 0.05 0.01 0.02 0.06 0.01 0.03 0.05 0.07 0.14 0.11 0.04 0.02 0.03 0.05 0.06 0.09 0.26 0.38 0.33 0.30 0.24 0.04 0.00 0.00 0.01 0.02 0.01 0.00 0.00 0.00
0.26 0.24 0.34 0.47 0.56 0.68 0.81 0.85 0.39 0.94 1.12 0.31 0.15 0.18 0.16 0.03 0.04 0.09 0.03 0.14 0.12 0.20 0.14 0.06 0.02 0.00 0.00 0.01 0.01 0.02 0.08 0.20 0.27 0.32 0.28 0.10 0.02 0.08 0.12 0.04 0.01 0.00 0.00 0.00
0.31 0.27 0.26 0.37 0.62 0.78 0.88 1.03 0.40 0.55 0.94 0.60 0.31 0.17 0.20 0.08 0.03 0.04 0.05 0.04 0.02 0.06 0.10 0.04 0.01 0.01 0.01 0.00 0.00 0.00 0.02 0.03 0.05 0.07 0.05 0.01 0.03 0.08 0.09 0.08 0.06 0.04 0.01 0.00
0.35 0.37 0.34 0.40 0.58 0.74 1.24 0.81 0.35 0.93 1.41 0.68 0.31 0.15 0.09 0.16 0.05 0.05 0.17 0.04 0.02 0.03 0.03 0.08 0.05 0.02 0.01 0.01 0.00 0.00 0.00 0.00 0.00 0.01 0.01 0.01 0.01 0.02 0.01 0.00 0.01 0.01 0.01 0.01
0.44 0.42 0.48 0.48 0.56 0.76 1.22 0.80 0.29 0.56 0.80 0.57 0.26 0.13 0.10 0.12 0.10 0.04 0.08 0.09 0.08 0.11 0.19 0.13 0.18 0.07 0.01 0.00 0.01 0.00 0.00 0.01 0.03 0.02 0.00 0.01 0.01 0.02 0.06 0.04 0.01 0.00 0.01 0.00
0.51 0.48 0.50 0.62 0.70 0.80 0.94 0.58 0.23 0.18 0.45 0.37 0.23 0.17 0.13 0.10 0.16 0.08 0.08 0.10 0.13 0.19 0.41 0.39 0.11 0.05 0.04 0.03 0.04 0.01 0.01 0.02 0.05 0.05 0.03 0.03 0.01 0.01 0.01 0.00 0.01 0.01 0.01 0.01
0.42 0.46 0.59 0.68 0.69 0.88 0.99 1.25 0.71 0.18 0.36 0.58 0.33 0.21 0.09 0.15 0.16 0.17 0.11 0.08 0.12 0.22 0.31 0.39 0.27 0.11 0.18 0.09 0.02 0.01 0.02 0.04 0.02 0.02 0.02 0.03 0.03 0.03 0.01 0.01 0.01 0.00 0.01 0.01
0.41 0.54 0.56 0.68 0.68 0.66 0.44 0.50 0.30 0.14 0.33 0.71 0.57 0.25 0.18 0.13 0.24 0.32 0.29 0.18 0.19 0.28 0.37 0.29 0.16 0.11 0.28 0.36 0.23 0.07 0.03 0.03 0.05 0.04 0.03 0.03 0.02 0.02 0.01 0.01 0.01 0.02 0.01 0.01
0.53 0.66 0.81 0.92 0.75 0.47 0.21 0.05 0.03 0.10 0.33 0.47 0.64 0.60 0.42 0.32 0.32 0.39 0.40 0.39 0.38 0.44 0.39 0.27 0.29 0.20 0.30 0.34 0.12 0.03 0.03 0.03 0.04 0.06 0.06 0.04 0.03 0.03 0.03 0.02 0.03 0.04 0.05 0.04
0.57 0.77 0.99 1.18 0.78 0.50 0.20 0.13 0.13 0.14 0.31 0.22 0.31 0.66 0.90 0.63 0.41 0.31 0.40 0.37 0.35 0.29 0.27 0.21 0.35 0.37 0.44 0.22 0.05 0.02 0.00 0.01 0.00 0.01 0.03 0.04 0.06 0.05 0.03 0.03 0.03 0.02 0.01 0.01
0.56 0.62 0.87 1.21 0.61 0.19 0.23 0.52 0.51 0.37 0.26 0.14 0.18 0.39 0.93 1.09 0.67 0.39 0.38 0.34 0.22 0.16 0.09 0.24 0.25 0.50 0.36 0.12 0.04 0.01 0.00 0.00 0.00 0.00 0.00 0.01 0.04 0.05 0.03 0.04 0.05 0.02 0.01 0.00
0.22 0.37 0.64 0.54 0.24 0.22 0.38 0.49 0.33 0.23 0.13 0.11 0.18 0.24 0.69 0.79 0.76 0.33 0.32 0.35 0.30 0.27 0.20 0.21 0.29 0.28 0.23 0.17 0.10 0.03 0.01 0.01 0.01 0.01 0.01 0.01 0.02 0.02 0.03 0.02 0.01 0.01 0.00 0.01
0.16 0.22 0.22 0.24 0.27 0.24 0.15 0.12 0.11 0.09 0.18 0.17 0.13 0.14 0.28 0.55 0.71 0.53 0.30 0.50 0.37 0.18 0.29 0.43 0.46 0.28 0.07 0.03 0.04 0.03 0.02 0.02 0.02 0.03 0.04 0.04 0.05 0.07 0.07 0.07 0.06 0.06 0.05 0.06
0.19 0.11 0.07 0.13 0.10 0.11 0.09 0.07 0.07 0.15 0.36 0.11 0.14 0.08 0.21 0.40 0.59 0.64 0.32 0.52 0.76 0.46 0.44 0.47 0.33 0.21 0.09 0.07 0.04 0.04 0.04 0.04 0.06 0.07 0.07 0.06 0.06 0.06 0.07 0.09 0.12 0.13 0.18 0.29
0.06 0.13 0.14 0.34 0.21 0.28 0.24 0.19 0.14 0.14 0.10 0.12 0.37 0.15 0.27 0.43 0.63 0.70 0.58 0.65 0.68 0.76 0.41 0.33 0.28 0.31 0.31 0.31 0.30 0.26 0.32 0.35 0.36 0.38 0.36 0.36 0.35 0.39 0.43 0.48 0.57 0.55 0.72 0.98
0.21 0.33 0.32 0.31 0.43 0.31 0.23 0.21 0.19 0.18 0.14 0.24 0.37 0.39 0.46 0.56 0.67 0.62 0.48 0.43 0.32 0.25 0.25 0.26 0.35 0.39 0.37 0.40 0.45 0.48 0.51 0.51 0.50 0.52 0.52 0.59 0.61 0.55 0.68 0.79 0.77 0.66 0.69 0.69
0.21 0.26 0.35 0.31 0.35 0.33 0.31 0.31 0.28 0.31 0.31 0.42 0.54 0.53 0.37 0.33 0.29 0.24 0.19 0.15 0.16 0.23 0.33 0.31 0.35 0.37 0.41 0.47 0.50 0.56 0.57 0.52 0.50 0.50 0.47 0.47 0.47 0.43 0.48 0.53 0.52 0.55 0.44 0.45
0.21 0.32 0.37 0.40 0.37 0.38 0.38 0.35 0.32 0.33 0.33 0.36 0.35 0.29 0.27 0.20 0.11 0.19 0.20 0.26 0.32 0.35 0.46 0.54 0.50 0.51 0.58 0.58 0.57 0.60 0.55 0.48 0.46 0.43 0.41 0.43 0.45 0.31 0.20 0.29 0.44 0.33 0.32 0.28

GFSNW_prec_precacc24_081.txt.gz
Total_Precipitation_Accumulation
0.08 0.10 0.12 0.16 0.16 0.27 0.92 1.42 0.93 0.19 0.18 0.55 0.47 0.17 0.01 0.00 0.00 0.00 0.00 0.00 0.00 0.00 0.00 0.00 0.01 0.01 0.00 0.00 0.00 0.00 0.00 0.00 0.00 0.00 0.00 0.00 0.00 0.00 0.00 0.00 0.00 0.01 0.02 0.01
0.14 0.12 0.15 0.20 0.21 0.46 1.26 1.78 0.80 0.49 0.28 0.30 0.16 0.11 0.02 0.00 0.00 0.00 0.00 0.00 0.00 0.00 0.00 0.00 0.00 0.00 0.00 0.00 0.00 0.00 0.00 0.00 0.00 0.02 0.00 0.00 0.00 0.00 0.00 0.00 0.00 0.01 0.08 0.01
0.09 0.19 0.23 0.24 0.32 0.55 1.63 2.09 1.12 1.03 1.05 0.22 0.04 0.06 0.03 0.01 0.00 0.00 0.00 0.00 0.00 0.00 0.00 0.00 0.00 0.00 0.00 0.00 0.00 0.00 0.00 0.02 0.02 0.03 0.01 0.00 0.00 0.00 0.00 0.00 0.01 0.00 0.01 0.00
0.07 0.09 0.25 0.35 0.38 0.68 2.30 2.73 0.97 0.41 0.61 0.31 0.09 0.06 0.05 0.01 0.00 0.00 0.00 0.00 0.01 0.00 0.00 0.01 0.00 0.01 0.02 0.00 0.00 0.00 0.02 0.01 0.01 0.02 0.01 0.00 0.00 0.00 0.00 0.00 0.00 0.01 0.00 0.00
0.08 0.08 0.12 0.41 0.57 0.97 2.76 2.67 0.49 0.17 0.11 0.11 0.15 0.16 0.14 0.02 0.00 0.00 0.00 0.00 0.00 0.00 0.00 0.01 0.03 0.03 0.07 0.05 0.01 0.01 0.02 0.01 0.00 0.00 0.00 0.00 0.00 0.00 0.00 0.00 0.00 0.00 0.00 0.00
0.15 0.11 0.10 0.15 0.59 1.42 3.21 2.13 0.26 0.23 0.17 0.09 0.31 0.30 0.06 0.03 0.02 0.02 0.00 0.00 0.01 0.01 0.00 0.02 0.12 0.07 0.05 0.11 0.12 0.06 0.07 0.08 0.05 0.02 0.00 0.00 0.01 0.00 0.00 0.00 0.00 0.00 0.00 0.00
0.24 0.20 0.15 0.15 0.27 1.24 2.15 1.38 0.19 0.42 0.50 0.18 0.08 0.05 0.06 0.06 0.05 0.04 0.01 0.00 0.00 0.01 0.01 0.06 0.21 0.11 0.05 0.14 0.11 0.18 0.18 0.13 0.16 0.08 0.03 0.11 0.04 0.00 0.00 0.00 0.00 0.00 0.00 0.00
0.35 0.33 0.26 0.22 0.26 0.54 1.67 1.34 0.39 0.20 0.27 0.12 0.07 0.04 0.05 0.05 0.05 0.04 0.02 0.01 0.00 0.01 0.05 0.11 0.19 0.17 0.11 0.11 0.21 0.21 0.17 0.21 0.33 0.16 0.08 0.05 0.00 0.00 0.00 0.00 0.00 0.00 0.00 0.00
0.26 0.39 0.41 0.32 0.30 0.39 1.06 1.45 0.80 0.51 0.35 0.16 0.01 0.03 0.05 0.05 0.06 0.08 0.03 0.04 0.02 0.05 0.13 0.20 0.16 0.17 0.09 0.09 0.09 0.22 0.36 0.25 0.28 0.31 0.20 0.07 0.00 0.00 0.00 0.00 0.00 0.00 0.00 0.00
0.16 0.27 0.45 0.49 0.43 0.44 0.74 1.15 0.75 1.31 1.00 0.16 0.05 0.05 0.06 0.05 0.10 0.16 0.06 0.10 0.12 0.17 0.24 0.19 0.08 0.06 0.04 0.05 0.09 0.09 0.26 0.39 0.35 0.30 0.26 0.05 0.00 0.00 0.01 0.03 0.02 0.00 0.00 0.00
0.18 0.19 0.30 0.49 0.59 0.58 0.90 0.92 0.44 0.98 1.18 0.28 0.08 0.09 0.09 0.05 0.11 0.20 0.10 0.27 0.25 0.35 0.24 0.12 0.06 0.03 0.02 0.01 0.03 0.04 0.09 0.20 0.29 0.32 0.29 0.11 0.02 0.10 0.15 0.06 0.01 0.00 0.00 0.00
0.23 0.21 0.21 0.34 0.54 0.77 1.10 1.25 0.47 0.58 0.95 0.58 0.18 0.08 0.06 0.06 0.08 0.15 0.16 0.07 0.05 0.07 0.15 0.08 0.05 0.03 0.02 0.01 0.01 0.01 0.06 0.02 0.06 0.08 0.06 0.02 0.05 0.10 0.10 0.08 0.06 0.04 0.01 0.00
0.27 0.31 0.28 0.30 0.45 0.77 1.50 1.11 0.40 1.06 1.60 0.73 0.32 0.11 0.01 0.02 0.07 0.09 0.21 0.06 0.06 0.08 0.06 0.16 0.11 0.06 0.01 0.02 0.01 0.00 0.00 0.00 0.04 0.07 0.03 0.02 0.03 0.04 0.01 0.00 0.01 0.01 0.01 0.01
0.32 0.36 0.40 0.38 0.45 0.78 1.55 1.05 0.33 0.67 0.97 0.62 0.27 0.12 0.11 0.04 0.05 0.05 0.07 0.10 0.14 0.19 0.27 0.20 0.24 0.10 0.02 0.01 0.01 0.00 0.00 0.00 0.02 0.03 0.01 0.01 0.01 0.02 0.06 0.04 0.01 0.00 0.01 0.00
0.37 0.40 0.45 0.55 0.62 1.00 1.37 0.75 0.29 0.22 0.50 0.44 0.25 0.15 0.08 0.07 0.12 0.09 0.10 0.13 0.20 0.30 0.54 0.47 0.17 0.11 0.09 0.06 0.07 0.02 0.02 0.03 0.05 0.07 0.03 0.02 0.01 0.00 0.00 0.00 0.01 0.01 0.01 0.01
0.37 0.45 0.57 0.69 0.93 1.33 1.41 1.70 1.06 0.28 0.45 0.67 0.39 0.20 0.07 0.05 0.08 0.12 0.09 0.15 0.25 0.38 0.43 0.46 0.33 0.16 0.26 0.16 0.06 0.04 0.03 0.04 0.02 0.02 0.01 0.02 0.03 0.03 0.01 0.01 0.01 0.00 0.01 0.01
0.45 0.66 0.73 0.90 1.02 0.87 0.55 0.63 0.50 0.23 0.38 0.68 0.59 0.24 0.16 0.09 0.11 0.21 0.28 0.32 0.36 0.36 0.44 0.32 0.20 0.15 0.34 0.42 0.28 0.09 0.03 0.03 0.05 0.04 0.03 0.03 0.02 0.02 0.01 0.01 0.01 0.02 0.01 0.01
0.78 0.97 0.98 1.13 1.02 0.72 0.31 0.03 0.03 0.07 0.32 0.43 0.57 0.53 0.33 0.19 0.14 0.24 0.31 0.49 0.49 0.54 0.50 0.33 0.31 0.26 0.35 0.41 0.14 0.03 0.03 0.03 0.04 0.05 0.06 0.04 0.03 0.03 0.03 0.02 0.03 0.04 0.05 0.05
0.94 1.06 1.32 1.55 1.06 0.72 0.24 0.11 0.14 0.16 0.24 0.19 0.28 0.47 0.74 0.29 0.16 0.15 0.31 0.37 0.52 0.42 0.33 0.27 0.42 0.46 0.51 0.28 0.06 0.02 0.01 0.01 0.00 0.01 0.02 0.05 0.06 0.05 0.03 0.03 0.03 0.02 0.02 0.02
0.84 0.87 1.11 1.57 0.78 0.20 0.24 0.53 0.56 0.39 0.21 0.09 0.16 0.19 0.42 0.55 0.37 0.33 0.39 0.37 0.27 0.26 0.22 0.27 0.37 0.60 0.39 0.13 0.04 0.02 0.01 0.00 0.01 0.01 0.00 0.01 0.05 0.06 0.05 0.06 0.08 0.08 0.07 0.05
0.29 0.47 0.82 0.79 0.28 0.16 0.32 0.49 0.33 0.22 0.12 0.10 0.19 0.15 0.25 0.50 0.60 0.33 0.32 0.44 0.26 0.18 0.21 0.30 0.38 0.31 0.24 0.17 0.10 0.04 0.01 0.01 0.01 0.01 0.01 0.02 0.03 0.04 0.05 0.06 0.06 0.07 0.08 0.11
0.09 0.23 0.34 0.25 0.20 0.24 0.16 0.15 0.14 0.13 0.21 0.18 0.15 0.13 0.21 0.56 0.65 0.49 0.35 0.64 0.46 0.22 0.23 0.32 0.34 0.27 0.07 0.03 0.04 0.03 0.02 0.02 0.02 0.03 0.04 0.05 0.06 0.08 0.09 0.09 0.11 0.13 0.13 0.15
0.08 0.05 0.04 0.07 0.06 0.04 0.05 0.06 0.07 0.16 0.38 0.14 0.19 0.14 0.28 0.47 0.57 0.61 0.35 0.56 0.81 0.44 0.31 0.30 0.22 0.16 0.07 0.06 0.03 0.04 0.04 0.03 0.03 0.04 0.05 0.04 0.05 0.06 0.07 0.09 0.12 0.12 0.15 0.22
0.01 0.01 0.00 0.06 0.05 0.09 0.11 0.10 0.09 0.13 0.11 0.13 0.38 0.14 0.28 0.37 0.58 0.69 0.55 0.60 0.63 0.66 0.29 0.18 0.16 0.18 0.15 0.12 0.11 0.10 0.15 0.16 0.16 0.18 0.17 0.17 0.17 0.20 0.23 0.27 0.33 0.25 0.35 0.53
0.01 0.00 0.04 0.05 0.16 0.11 0.08 0.07 0.08 0.08 0.09 0.21 0.31 0.28 0.32 0.47 0.57 0.52 0.41 0.36 0.27 0.20 0.20 0.18 0.26 0.27 0.21 0.21 0.21 0.21 0.25 0.28 0.30 0.32 0.30 0.33 0.33 0.26 0.35 0.44 0.43 0.36 0.43 0.48
0.00 0.04 0.09 0.06 0.07 0.06 0.05 0.05 0.06 0.07 0.10 0.19 0.27 0.25 0.20 0.22 0.24 0.20 0.15 0.12 0.13 0.19 0.29 0.26 0.27 0.30 0.31 0.34 0.34 0.37 0.38 0.36 0.37 0.39 0.37 0.36 0.36 0.34 0.38 0.39 0.38 0.41 0.34 0.37
0.04 0.10 0.09 0.07 0.08 0.09 0.09 0.07 0.06 0.08 0.12 0.18 0.20 0.18 0.20 0.14 0.09 0.17 0.19 0.24 0.28 0.28 0.39 0.46 0.40 0.41 0.46 0.45 0.42 0.44 0.41 0.39 0.41 0.40 0.37 0.38 0.39 0.28 0.19 0.27 0.42 0.33 0.32 0.29

GFSNW_prec_precacc24_087.txt.gz
Total_Precipitation_Accumulation
0.07 0.08 0.11 0.14 0.16 0.27 0.80 1.28 0.84 0.21 0.19 0.52 0.42 0.20 0.01 0.00 0.00 0.00 0.00 0.00 0.00 0.00 0.00 0.00 0.00 0.05 0.01 0.00 0.00 0.00 0.00 0.00 0.01 0.01 0.00 0.01 0.02 0.01 0.03 0.13 0.10 0.05 0.10 0.09
0.08 0.10 0.13 0.15 0.19 0.42 1.10 1.51 0.69 0.47 0.45 0.30 0.18 0.12 0.02 0.00 0.00 0.00 0.00 0.00 0.00 0.00 0.00 0.00 0.00 0.01 0.00 0.00 0.00 0.00 0.00 0.01 0.01 0.06 0.03 0.00 0.01 0.02 0.05 0.02 0.11 0.24 0.21 0.07
0.07 0.11 0.17 0.17 0.20 0.43 1.37 1.86 0.91 0.87 0.99 0.37 0.08 0.11 0.05 0.01 0.00 0.00 0.00 0.00 0.00 0.00 0.00 0.00 0.00 0.00 0.00 0.00 0.00 0.00 0.00 0.02 0.03 0.11 0.29 0.27 0.05 0.01 0.04 0.04 0.11 0.08 0.11 0.10
0.07 0.07 0.13 0.16 0.24 0.52 1.81 2.06 0.77 0.37 0.50 0.30 0.13 0.11 0.16 0.06 0.01 0.00 0.00 0.00 0.00 0.00 0.00 0.00 0.00 0.00 0.00 0.00 0.00 0.00 0.02 0.01 0.01 0.03 0.11 0.21 0.23 0.15 0.10 0.08 0.04 0.07 0.01 0.03
0.14 0.10 0.09 0.15 0.26 0.72 2.11 1.88 0.38 0.17 0.13 0.13 0.16 0.17 0.15 0.04 0.02 0.01 0.01 0.00 0.00 0.00 0.00 0.00 0.00 0.00 0.01 0.00 0.01 0.01 0.02 0.01 0.00 0.00 0.00 0.00 0.01 0.04 0.09 0.13 0.11 0.10 0.06 0.02
0.26 0.19 0.14 0.13 0.23 0.87 2.08 1.26 0.23 0.26 0.20 0.08 0.32 0.33 0.08 0.04 0.03 0.03 0.01 0.01 0.03 0.02 0.01 0.00 0.00 0.01 0.00 0.01 0.03 0.05 0.07 0.08 0.05 0.02 0.00 0.00 0.01 0.00 0.00 0.01 0.01 0.01 0.02 0.00
0.28 0.31 0.28 0.23 0.22 0.61 1.06 0.68 0.17 0.37 0.36 0.15 0.07 0.06 0.08 0.08 0.07 0.10 0.05 0.04 0.04 0.03 0.01 0.02 0.04 0.02 0.00 0.01 0.02 0.08 0.17 0.13 0.16 0.08 0.02 0.11 0.03 0.00 0.00 0.00 0.00 0.00 0.00 0.01
0.31 0.35 0.35 0.30 0.29 0.40 0.65 0.70 0.40 0.19 0.21 0.11 0.06 0.05 0.06 0.10 0.11 0.08 0.06 0.05 0.07 0.11 0.07 0.09 0.05 0.02 0.03 0.00 0.00 0.04 0.15 0.19 0.27 0.14 0.06 0.05 0.00 0.00 0.00 0.00 0.00 0.01 0.01 0.03
0.19 0.27 0.36 0.41 0.40 0.43 0.57 0.66 0.63 0.52 0.38 0.15 0.01 0.03 0.05 0.08 0.14 0.18 0.09 0.12 0.18 0.17 0.24 0.17 0.13 0.08 0.07 0.06 0.03 0.03 0.20 0.23 0.22 0.25 0.19 0.07 0.00 0.00 0.00 0.00 0.00 0.01 0.00 0.02
0.13 0.20 0.32 0.43 0.44 0.50 0.64 0.62 0.49 1.07 0.94 0.14 0.04 0.03 0.05 0.06 0.12 0.23 0.17 0.22 0.27 0.23 0.24 0.20 0.09 0.07 0.06 0.12 0.16 0.05 0.14 0.33 0.32 0.26 0.19 0.05 0.00 0.00 0.01 0.05 0.04 0.00 0.00 0.00
0.13 0.16 0.22 0.42 0.58 0.56 0.85 0.69 0.28 0.60 0.96 0.26 0.05 0.04 0.07 0.06 0.16 0.27 0.25 0.50 0.35 0.22 0.21 0.14 0.10 0.10 0.10 0.05 0.13 0.10 0.08 0.18 0.25 0.26 0.26 0.11 0.02 0.11 0.20 0.14 0.01 0.00 0.00 0.00
0.19 0.18 0.16 0.23 0.51 0.79 1.14 1.20 0.35 0.32 0.68 0.46 0.13 0.04 0.02 0.05 0.13 0.35 0.42 0.23 0.29 0.09 0.08 0.08 0.11 0.14 0.12 0.08 0.09 0.10 0.12 0.02 0.06 0.06 0.06 0.05 0.12 0.15 0.16 0.09 0.06 0.04 0.01 0.00
0.18 0.25 0.25 0.21 0.30 0.66 1.67 1.36 0.34 0.68 1.13 0.67 0.24 0.08 0.00 0.01 0.04 0.13 0.26 0.17 0.22 0.24 0.19 0.20 0.18 0.15 0.07 0.08 0.04 0.11 0.17 0.04 0.10 0.14 0.13 0.15 0.32 0.20 0.02 0.01 0.01 0.01 0.01 0.00
0.22 0.28 0.34 0.28 0.29 0.56 1.61 1.48 0.39 0.50 0.70 0.57 0.23 0.04 0.07 0.04 0.04 0.05 0.08 0.11 0.17 0.26 0.40 0.30 0.22 0.15 0.06 0.06 0.04 0.05 0.10 0.12 0.05 0.17 0.26 0.27 0.47 0.40 0.11 0.01 0.00 0.00 0.01 0.00
0.31 0.36 0.41 0.43 0.44 0.86 1.56 0.92 0.25 0.17 0.38 0.44 0.20 0.09 0.04 0.07 0.11 0.09 0.12 0.15 0.20 0.30 0.42 0.41 0.23 0.16 0.15 0.10 0.15 0.12 0.06 0.19 0.25 0.41 0.27 0.24 0.29 0.10 0.02 0.01 0.01 0.01 0.01 0.01
0.34 0.42 0.53 0.62 0.85 1.39 1.94 2.21 1.36 0.26 0.36 0.78 0.45 0.21 0.08 0.04 0.07 0.11 0.08 0.15 0.30 0.43 0.42 0.31 0.31 0.25 0.40 0.23 0.18 0.13 0.03 0.04 0.04 0.07 0.10 0.06 0.05 0.03 0.01 0.01 0.01 0.00 0.00 0.01
0.39 0.58 0.69 0.91 1.06 0.81 0.63 0.69 0.57 0.25 0.47 0.95 0.75 0.32 0.18 0.07 0.10 0.22 0.31 0.37 0.44 0.34 0.37 0.22 0.18 0.22 0.40 0.48 0.50 0.26 0.10 0.05 0.05 0.04 0.04 0.03 0.02 0.02 0.01 0.01 0.01 0.02 0.01 0.01
0.66 0.85 0.85 1.07 0.96 0.70 0.41 0.05 0.01 0.09 0.51 0.56 0.65 0.68 0.50 0.17 0.16 0.30 0.37 0.57 0.57 0.56 0.43 0.20 0.16 0.28 0.40 0.56 0.17 0.04 0.06 0.07 0.06 0.06 0.06 0.04 0.03 0.03 0.03 0.02 0.03 0.04 0.05 0.05
1.03 1.21 1.62 1.93 1.28 1.01 0.43 0.14 0.16 0.17 0.30 0.26 0.32 0.53 0.82 0.26 0.23 0.18 0.38 0.34 0.58 0.47 0.28 0.17 0.30 0.34 0.58 0.36 0.07 0.02 0.01 0.01 0.00 0.01 0.02 0.05 0.06 0.05 0.03 0.03 0.03 0.02 0.02 0.02
0.95 1.03 1.31 1.84 0.97 0.30 0.32 0.70 0.72 0.52 0.26 0.17 0.20 0.27 0.49 0.31 0.28 0.20 0.36 0.30 0.26 0.32 0.19 0.19 0.29 0.42 0.36 0.13 0.05 0.02 0.01 0.00 0.01 0.01 0.01 0.01 0.04 0.06 0.06 0.06 0.08 0.08 0.07 0.06
0.44 0.65 1.01 1.03 0.44 0.19 0.33 0.60 0.40 0.28 0.16 0.14 0.25 0.21 0.21 0.17 0.15 0.15 0.23 0.28 0.22 0.18 0.17 0.23 0.34 0.25 0.19 0.11 0.09 0.03 0.01 0.01 0.01 0.01 0.01 0.02 0.03 0.05 0.06 0.06 0.06 0.07 0.09 0.12
0.11 0.33 0.54 0.46 0.24 0.23 0.20 0.16 0.16 0.13 0.16 0.11 0.15 0.18 0.17 0.22 0.14 0.18 0.20 0.39 0.31 0.24 0.23 0.27 0.20 0.19 0.06 0.02 0.03 0.03 0.02 0.02 0.02 0.03 0.04 0.05 0.07 0.09 0.09 0.10 0.12 0.14 0.15 0.16
0.00 0.02 0.03 0.03 0.04 0.08 0.08 0.08 0.11 0.13 0.20 0.11 0.10 0.10 0.15 0.15 0.19 0.27 0.12 0.27 0.56 0.31 0.28 0.21 0.14 0.12 0.03 0.03 0.03 0.03 0.03 0.03 0.03 0.04 0.05 0.05 0.05 0.06 0.08 0.10 0.14 0.13 0.16 0.23
0.00 0.00 0.00 0.01 0.02 0.06 0.10 0.10 0.08 0.11 0.11 0.13 0.22 0.08 0.18 0.16 0.17 0.23 0.22 0.17 0.19 0.42 0.21 0.11 0.13 0.12 0.10 0.09 0.08 0.06 0.08 0.09 0.09 0.12 0.11 0.12 0.13 0.16 0.18 0.21 0.26 0.20 0.27 0.39
0.00 0.00 0.02 0.04 0.12 0.11 0.11 0.08 0.08 0.08 0.09 0.20 0.27 0.23 0.24 0.24 0.24 0.15 0.15 0.14 0.13 0.12 0.11 0.13 0.16 0.15 0.12 0.14 0.14 0.14 0.15 0.16 0.18 0.19 0.18 0.21 0.22 0.17 0.24 0.30 0.29 0.25 0.28 0.31
0.00 0.03 0.07 0.07 0.09 0.09 0.07 0.07 0.09 0.09 0.11 0.16 0.17 0.14 0.13 0.18 0.18 0.12 0.10 0.08 0.09 0.14 0.19 0.17 0.16 0.17 0.18 0.20 0.22 0.25 0.27 0.25 0.26 0.27 0.26 0.25 0.25 0.23 0.27 0.27 0.26 0.28 0.24 0.25
0.01 0.04 0.06 0.06 0.06 0.08 0.09 0.07 0.06 0.05 0.07 0.11 0.12 0.12 0.14 0.11 0.08 0.16 0.16 0.19 0.22 0.22 0.32 0.35 0.30 0.31 0.33 0.31 0.30 0.31 0.30 0.29 0.29 0.29 0.27 0.27 0.28 0.22 0.16 0.19 0.30 0.24 0.23 0.20

GFSNW_prec_precacc24_093.txt.gz
Total_Precipitation_Accumulation
0.07 0.08 0.10 0.13 0.16 0.20 0.31 0.56 0.55 0.20 0.22 0.45 0.43 0.24 0.04 0.00 0.00 0.02 0.04 0.00 0.00 0.00 0.00 0.00 0.01 0.06 0.02 0.00 0.00 0.00 0.00 0.00 0.01 0.01 0.00 0.01 0.03 0.04 0.17 0.36 0.18 0.07 0.14 0.13
0.07 0.07 0.12 0.13 0.16 0.22 0.45 0.75 0.43 0.41 0.53 0.36 0.21 0.15 0.03 0.01 0.00 0.01 0.05 0.02 0.00 0.00 0.00 0.00 0.00 0.02 0.01 0.00 0.00 0.00 0.00 0.01 0.01 0.06 0.04 0.04 0.05 0.09 0.16 0.16 0.32 0.39 0.27 0.09
0.08 0.09 0.16 0.15 0.11 0.20 0.59 1.02 0.61 0.61 0.90 0.52 0.10 0.13 0.06 0.01 0.00 0.00 0.01 0.01 0.00 0.00 0.00 0.00 0.00 0.00 0.00 0.00 0.00 0.00 0.00 0.02 0.04 0.13 0.33 0.40 0.21 0.16 0.16 0.27 0.33 0.12 0.14 0.11
0.08 0.07 0.18 0.17 0.13 0.26 0.77 1.12 0.59 0.34 0.47 0.37 0.20 0.16 0.21 0.09 0.02 0.01 0.01 0.00 0.00 0.00 0.00 0.00 0.00 0.00 0.00 0.00 0.00 0.00 0.00 0.00 0.01 0.03 0.12 0.21 0.25 0.23 0.23 0.28 0.19 0.20 0.03 0.05
0.12 0.10 0.10 0.12 0.15 0.38 0.88 0.96 0.29 0.17 0.14 0.18 0.35 0.30 0.18 0.09 0.04 0.01 0.01 0.00 0.00 0.00 0.00 0.00 0.00 0.00 0.00 0.00 0.00 0.00 0.00 0.00 0.00 0.00 0.00 0.01 0.01 0.05 0.13 0.19 0.27 0.27 0.12 0.09
0.24 0.18 0.13 0.10 0.13 0.43 0.86 0.56 0.17 0.26 0.19 0.08 0.30 0.39 0.22 0.15 0.08 0.04 0.01 0.01 0.03 0.02 0.01 0.00 0.00 0.00 0.00 0.00 0.00 0.00 0.01 0.01 0.00 0.01 0.01 0.01 0.00 0.00 0.00 0.02 0.04 0.10 0.08 0.06
0.26 0.32 0.30 0.24 0.20 0.31 0.50 0.23 0.11 0.27 0.25 0.15 0.07 0.06 0.09 0.09 0.07 0.10 0.05 0.04 0.05 0.03 0.00 0.01 0.01 0.00 0.00 0.00 0.01 0.02 0.02 0.02 0.02 0.01 0.01 0.02 0.00 0.01 0.00 0.08 0.15 0.03 0.03 0.05
0.27 0.34 0.36 0.30 0.26 0.27 0.34 0.26 0.19 0.15 0.17 0.10 0.06 0.05 0.06 0.10 0.11 0.08 0.06 0.05 0.07 0.11 0.07 0.10 0.05 0.02 0.02 0.00 0.00 0.01 0.02 0.02 0.06 0.03 0.00 0.00 0.00 0.00 0.00 0.03 0.05 0.03 0.08 0.18
0.18 0.25 0.34 0.42 0.39 0.35 0.41 0.30 0.24 0.30 0.31 0.12 0.01 0.03 0.05 0.08 0.14 0.18 0.10 0.13 0.18 0.17 0.26 0.23 0.14 0.08 0.06 0.05 0.03 0.01 0.01 0.02 0.07 0.08 0.06 0.00 0.00 0.00 0.00 0.01 0.03 0.01 0.05 0.29
0.14 0.20 0.30 0.41 0.44 0.50 0.57 0.46 0.25 0.49 0.47 0.10 0.04 0.03 0.05 0.06 0.13 0.23 0.17 0.23 0.30 0.32 0.26 0.22 0.09 0.07 0.06 0.12 0.17 0.06 0.05 0.07 0.07 0.06 0.09 0.02 0.00 0.00 0.01 0.05 0.04 0.00 0.00 0.08
0.12 0.17 0.24 0.43 0.56 0.55 0.79 0.62 0.20 0.32 0.40 0.16 0.04 0.04 0.07 0.07 0.16 0.31 0.26 0.51 0.37 0.37 0.24 0.14 0.10 0.10 0.10 0.06 0.14 0.14 0.10 0.11 0.09 0.08 0.12 0.04 0.00 0.06 0.14 0.13 0.01 0.00 0.00 0.01
0.16 0.16 0.18 0.27 0.54 0.73 1.04 1.04 0.28 0.28 0.41 0.27 0.12 0.03 0.02 0.05 0.13 0.35 0.43 0.30 0.36 0.20 0.26 0.16 0.12 0.15 0.12 0.08 0.10 0.21 0.24 0.06 0.06 0.03 0.03 0.09 0.13 0.08 0.09 0.06 0.06 0.04 0.02 0.01
0.19 0.21 0.20 0.22 0.32 0.64 1.35 1.21 0.28 0.72 0.91 0.38 0.15 0.07 0.00 0.01 0.04 0.13 0.25 0.28 0.40 0.48 0.44 0.38 0.21 0.16 0.09 0.09 0.12 0.26 0.54 0.45 0.28 0.21 0.21 0.17 0.36 0.25 0.06 0.04 0.12 0.10 0.02 0.01
0.23 0.27 0.25 0.21 0.29 0.52 1.18 1.32 0.43 0.52 0.57 0.29 0.09 0.02 0.06 0.03 0.02 0.04 0.06 0.10 0.17 0.27 0.44 0.34 0.22 0.13 0.07 0.08 0.13 0.24 0.27 0.53 0.56 0.52 0.44 0.36 0.54 0.51 0.34 0.22 0.05 0.08 0.06 0.02
0.24 0.33 0.35 0.29 0.35 0.73 1.23 0.88 0.32 0.19 0.20 0.25 0.05 0.02 0.00 0.04 0.06 0.06 0.08 0.13 0.18 0.28 0.32 0.29 0.19 0.13 0.15 0.12 0.28 0.28 0.15 0.37 0.68 1.01 0.71 0.54 0.55 0.24 0.14 0.15 0.07 0.01 0.02 0.01
0.25 0.38 0.43 0.38 0.62 1.13 1.94 2.38 1.36 0.26 0.32 0.42 0.24 0.07 0.03 0.01 0.03 0.07 0.07 0.15 0.31 0.38 0.33 0.20 0.17 0.18 0.53 0.48 0.45 0.24 0.07 0.10 0.22 0.42 0.62 0.50 0.31 0.16 0.05 0.02 0.01 0.00 0.00 0.01
0.38 0.52 0.53 0.59 0.80 0.75 0.68 0.67 0.51 0.23 0.42 0.56 0.31 0.16 0.10 0.04 0.08 0.20 0.30 0.38 0.47 0.34 0.33 0.15 0.12 0.20 0.39 0.61 0.60 0.35 0.18 0.16 0.23 0.21 0.17 0.08 0.08 0.06 0.02 0.01 0.01 0.02 0.01 0.01
0.55 0.67 0.64 0.88 0.93 0.77 0.52 0.11 0.01 0.10 0.56 0.34 0.31 0.51 0.45 0.16 0.16 0.29 0.37 0.59 0.59 0.58 0.43 0.17 0.10 0.25 0.36 0.46 0.12 0.03 0.09 0.10 0.11 0.13 0.08 0.04 0.02 0.01 0.02 0.01 0.02 0.03 0.04 0.05
0.97 1.09 1.59 2.15 1.52 1.17 0.56 0.18 0.11 0.16 0.30 0.22 0.23 0.50 0.82 0.34 0.27 0.21 0.41 0.36 0.60 0.50 0.29 0.16 0.26 0.26 0.38 0.26 0.04 0.02 0.01 0.01 0.01 0.01 0.02 0.03 0.02 0.02 0.02 0.02 0.02 0.02 0.02 0.03
1.13 1.35 1.82 2.13 0.98 0.30 0.53 0.88 0.81 0.75 0.41 0.18 0.21 0.28 0.61 0.54 0.33 0.21 0.36 0.30 0.27 0.34 0.20 0.19 0.29 0.22 0.16 0.05 0.01 0.00 0.01 0.00 0.01 0.01 0.01 0.01 0.04 0.05 0.05 0.06 0.07 0.08 0.08 0.06
0.62 0.96 1.13 0.99 0.44 0.30 0.47 0.76 0.51 0.36 0.20 0.14 0.25 0.22 0.28 0.54 0.31 0.16 0.22 0.26 0.24 0.18 0.17 0.31 0.33 0.15 0.12 0.03 0.00 0.00 0.00 0.00 0.00 0.01 0.02 0.03 0.04 0.05 0.07 0.06 0.06 0.07 0.09 0.13
0.15 0.43 0.81 0.73 0.49 0.43 0.31 0.20 0.17 0.12 0.15 0.11 0.15 0.21 0.21 0.55 0.40 0.27 0.22 0.24 0.20 0.24 0.31 0.34 0.19 0.16 0.04 0.00 0.01 0.00 0.01 0.01 0.01 0.02 0.02 0.03 0.04 0.05 0.05 0.06 0.09 0.12 0.14 0.16
0.01 0.04 0.19 0.20 0.19 0.16 0.10 0.08 0.11 0.08 0.07 0.06 0.08 0.16 0.20 0.28 0.27 0.34 0.11 0.17 0.29 0.21 0.29 0.23 0.11 0.08 0.02 0.01 0.01 0.01 0.02 0.02 0.02 0.03 0.03 0.04 0.05 0.05 0.06 0.07 0.10 0.10 0.13 0.20
0.01 0.01 0.02 0.02 0.01 0.04 0.08 0.07 0.05 0.06 0.05 0.04 0.05 0.04 0.09 0.05 0.07 0.17 0.06 0.09 0.12 0.27 0.14 0.08 0.11 0.07 0.07 0.05 0.05 0.04 0.06 0.05 0.06 0.07 0.07 0.07 0.07 0.09 0.11 0.12 0.14 0.11 0.15 0.22
0.00 0.00 0.01 0.03 0.09 0.11 0.12 0.07 0.07 0.07 0.06 0.06 0.06 0.03 0.06 0.04 0.03 0.02 0.03 0.05 0.05 0.05 0.08 0.10 0.11 0.10 0.08 0.10 0.10 0.09 0.09 0.09 0.10 0.11 0.10 0.12 0.12 0.10 0.14 0.17 0.16 0.14 0.16 0.18
0.00 0.03 0.08 0.09 0.09 0.12 0.09 0.09 0.10 0.11 0.10 0.08 0.08 0.04 0.05 0.07 0.03 0.02 0.02 0.04 0.04 0.08 0.08 0.09 0.07 0.07 0.08 0.10 0.11 0.13 0.14 0.13 0.13 0.14 0.14 0.14 0.15 0.15 0.16 0.17 0.17 0.19 0.17 0.18
0.01 0.04 0.06 0.06 0.06 0.09 0.10 0.08 0.07 0.06 0.07 0.09 0.10 0.09 0.08 0.07 0.04 0.05 0.05 0.08 0.09 0.10 0.13 0.13 0.13 0.13 0.13 0.13 0.13 0.14 0.15 0.14 0.16 0.16 0.17 0.17 0.18 0.16 0.13 0.14 0.21 0.18 0.18 0.16

GFSNW_prec_precacc24_096.txt.gz
Total_Precipitation_Accumulation
0.07 0.08 0.10 0.14 0.18 0.18 0.16 0.26 0.27 0.15 0.24 0.47 0.40 0.23 0.04 0.01 0.02 0.06 0.16 0.16 0.08 0.05 0.00 0.01 0.04 0.09 0.02 0.00 0.00 0.00 0.00 0.00 0.01 0.01 0.00 0.01 0.03 0.05 0.19 0.43 0.22 0.11 0.16 0.13
0.08 0.08 0.12 0.16 0.17 0.17 0.22 0.36 0.19 0.27 0.54 0.40 0.26 0.16 0.03 0.01 0.01 0.02 0.14 0.13 0.08 0.05 0.01 0.00 0.05 0.08 0.03 0.00 0.00 0.00 0.00 0.01 0.01 0.07 0.05 0.05 0.05 0.09 0.20 0.21 0.34 0.40 0.31 0.10
0.08 0.09 0.16 0.17 0.12 0.16 0.30 0.51 0.37 0.33 0.74 0.53 0.14 0.14 0.06 0.02 0.00 0.00 0.05 0.13 0.10 0.02 0.02 0.01 0.02 0.04 0.01 0.00 0.00 0.00 0.00 0.02 0.04 0.13 0.34 0.40 0.21 0.16 0.16 0.29 0.37 0.16 0.16 0.11
0.07 0.07 0.17 0.19 0.12 0.20 0.35 0.53 0.37 0.26 0.37 0.38 0.23 0.19 0.21 0.13 0.08 0.04 0.05 0.21 0.06 0.01 0.02 0.01 0.00 0.00 0.00 0.00 0.00 0.00 0.00 0.00 0.00 0.03 0.12 0.21 0.25 0.23 0.23 0.29 0.20 0.24 0.04 0.05
0.11 0.09 0.09 0.14 0.14 0.26 0.34 0.43 0.19 0.14 0.14 0.18 0.36 0.35 0.21 0.10 0.11 0.11 0.05 0.04 0.01 0.00 0.00 0.00 0.00 0.00 0.00 0.00 0.00 0.00 0.00 0.00 0.00 0.00 0.00 0.01 0.01 0.05 0.13 0.19 0.27 0.27 0.13 0.10
0.23 0.17 0.12 0.11 0.10 0.22 0.29 0.21 0.14 0.25 0.17 0.07 0.29 0.44 0.28 0.20 0.14 0.09 0.01 0.01 0.03 0.02 0.01 0.00 0.00 0.00 0.00 0.00 0.00 0.00 0.00 0.01 0.00 0.00 0.00 0.00 0.00 0.00 0.00 0.02 0.04 0.11 0.10 0.06
0.23 0.29 0.28 0.23 0.18 0.11 0.14 0.11 0.09 0.23 0.19 0.13 0.07 0.05 0.09 0.11 0.07 0.11 0.05 0.04 0.05 0.03 0.00 0.01 0.01 0.00 0.00 0.00 0.00 0.00 0.00 0.01 0.02 0.01 0.01 0.01 0.00 0.01 0.00 0.08 0.15 0.05 0.05 0.05
0.23 0.31 0.33 0.27 0.23 0.17 0.12 0.14 0.16 0.14 0.13 0.09 0.06 0.04 0.06 0.10 0.11 0.08 0.07 0.05 0.07 0.11 0.07 0.09 0.05 0.02 0.02 0.00 0.00 0.00 0.00 0.02 0.05 0.03 0.00 0.00 0.00 0.00 0.00 0.03 0.05 0.03 0.09 0.23
0.15 0.21 0.30 0.37 0.33 0.26 0.23 0.14 0.16 0.26 0.27 0.08 0.01 0.03 0.05 0.08 0.14 0.18 0.10 0.13 0.18 0.17 0.25 0.22 0.12 0.08 0.06 0.05 0.02 0.00 0.00 0.01 0.05 0.08 0.06 0.00 0.00 0.00 0.00 0.00 0.03 0.01 0.07 0.37
0.13 0.19 0.27 0.35 0.37 0.39 0.35 0.25 0.16 0.36 0.38 0.06 0.04 0.02 0.04 0.06 0.13 0.23 0.17 0.23 0.30 0.32 0.25 0.19 0.08 0.07 0.06 0.12 0.15 0.05 0.02 0.04 0.06 0.05 0.08 0.02 0.00 0.00 0.01 0.05 0.04 0.00 0.01 0.12
0.12 0.17 0.24 0.40 0.50 0.49 0.59 0.42 0.15 0.22 0.28 0.08 0.03 0.04 0.07 0.07 0.16 0.31 0.26 0.49 0.36 0.37 0.24 0.14 0.09 0.10 0.10 0.06 0.14 0.14 0.10 0.10 0.08 0.07 0.11 0.04 0.00 0.05 0.14 0.12 0.01 0.00 0.01 0.02
0.13 0.16 0.18 0.27 0.52 0.71 0.94 0.88 0.24 0.20 0.28 0.19 0.08 0.03 0.02 0.05 0.13 0.35 0.43 0.30 0.37 0.24 0.30 0.20 0.14 0.15 0.12 0.08 0.10 0.21 0.25 0.06 0.08 0.03 0.03 0.09 0.13 0.08 0.08 0.02 0.01 0.01 0.02 0.05
0.13 0.17 0.20 0.23 0.34 0.67 1.36 1.14 0.24 0.70 0.79 0.32 0.13 0.06 0.00 0.01 0.04 0.13 0.25 0.28 0.41 0.50 0.47 0.47 0.31 0.16 0.09 0.10 0.12 0.27 0.55 0.46 0.36 0.37 0.31 0.20 0.37 0.25 0.06 0.05 0.13 0.13 0.07 0.03
0.16 0.23 0.24 0.21 0.30 0.55 1.27 1.39 0.40 0.52 0.57 0.27 0.08 0.02 0.06 0.03 0.02 0.04 0.06 0.10 0.16 0.26 0.43 0.35 0.23 0.13 0.07 0.08 0.14 0.26 0.27 0.55 0.67 0.75 0.62 0.45 0.60 0.58 0.38 0.26 0.09 0.10 0.14 0.11
0.20 0.29 0.33 0.28 0.35 0.74 1.24 0.93 0.32 0.19 0.21 0.25 0.05 0.01 0.00 0.04 0.06 0.06 0.08 0.13 0.17 0.26 0.32 0.29 0.19 0.13 0.15 0.12 0.29 0.30 0.16 0.41 0.73 1.14 0.88 0.69 0.66 0.36 0.25 0.22 0.18 0.08 0.03 0.01
0.23 0.35 0.40 0.37 0.59 1.07 1.82 2.41 1.33 0.25 0.34 0.46 0.23 0.05 0.01 0.00 0.01 0.03 0.04 0.14 0.29 0.37 0.33 0.20 0.17 0.17 0.50 0.49 0.46 0.29 0.14 0.14 0.26 0.51 0.81 0.73 0.52 0.29 0.13 0.07 0.02 0.00 0.00 0.00
0.35 0.50 0.49 0.55 0.74 0.69 0.58 0.65 0.48 0.21 0.44 0.64 0.32 0.12 0.06 0.02 0.04 0.09 0.16 0.30 0.41 0.31 0.33 0.15 0.12 0.18 0.35 0.51 0.49 0.36 0.24 0.21 0.26 0.29 0.32 0.18 0.11 0.07 0.02 0.00 0.00 0.00 0.00 0.01
0.53 0.62 0.54 0.72 0.92 0.78 0.46 0.10 0.01 0.16 0.63 0.37 0.16 0.23 0.38 0.12 0.12 0.25 0.33 0.56 0.58 0.58 0.44 0.18 0.09 0.24 0.33 0.38 0.13 0.03 0.08 0.10 0.12 0.12 0.06 0.04 0.01 0.00 0.00 0.00 0.00 0.00 0.02 0.04
0.90 0.96 1.44 2.09 1.78 1.42 0.60 0.19 0.13 0.21 0.35 0.18 0.07 0.17 0.69 0.29 0.26 0.20 0.39 0.35 0.59 0.50 0.29 0.16 0.26 0.27 0.37 0.25 0.03 0.01 0.01 0.01 0.01 0.00 0.00 0.00 0.00 0.01 0.01 0.01 0.01 0.01 0.02 0.02
1.04 1.40 2.00 2.42 1.21 0.38 0.58 0.98 0.84 0.72 0.37 0.15 0.07 0.18 0.57 0.49 0.31 0.20 0.34 0.30 0.27 0.36 0.22 0.20 0.31 0.21 0.15 0.05 0.01 0.00 0.00 0.00 0.00 0.00 0.01 0.01 0.04 0.05 0.04 0.05 0.07 0.08 0.08 0.06
0.86 1.17 1.15 1.06 0.49 0.36 0.55 0.69 0.46 0.32 0.26 0.13 0.20 0.21 0.28 0.53 0.31 0.16 0.22 0.26 0.25 0.19 0.18 0.34 0.33 0.13 0.10 0.02 0.00 0.00 0.00 0.00 0.00 0.01 0.02 0.03 0.04 0.05 0.06 0.06 0.06 0.07 0.09 0.13
0.35 0.54 0.94 0.81 0.52 0.57 0.43 0.27 0.19 0.12 0.14 0.11 0.15 0.21 0.21 0.56 0.47 0.29 0.23 0.27 0.28 0.24 0.31 0.35 0.17 0.14 0.04 0.00 0.00 0.00 0.00 0.00 0.01 0.01 0.02 0.02 0.04 0.05 0.05 0.06 0.08 0.10 0.11 0.14
0.03 0.06 0.26 0.27 0.33 0.27 0.13 0.09 0.11 0.07 0.06 0.06 0.08 0.16 0.20 0.32 0.45 0.41 0.11 0.16 0.25 0.12 0.24 0.20 0.10 0.08 0.02 0.01 0.01 0.01 0.01 0.01 0.01 0.02 0.02 0.03 0.04 0.04 0.05 0.06 0.08 0.08 0.10 0.14
0.02 0.05 0.06 0.06 0.04 0.04 0.06 0.06 0.04 0.04 0.04 0.04 0.05 0.04 0.09 0.14 0.19 0.21 0.03 0.05 0.07 0.16 0.08 0.07 0.10 0.06 0.05 0.04 0.04 0.03 0.04 0.04 0.04 0.05 0.05 0.06 0.06 0.07 0.08 0.09 0.10 0.07 0.11 0.16
0.00 0.00 0.01 0.03 0.07 0.10 0.10 0.05 0.04 0.05 0.05 0.04 0.04 0.02 0.04 0.02 0.01 0.00 0.02 0.03 0.04 0.04 0.07 0.08 0.07 0.06 0.06 0.07 0.07 0.06 0.06 0.06 0.07 0.08 0.08 0.09 0.10 0.08 0.11 0.14 0.13 0.11 0.13 0.14
0.00 0.03 0.07 0.10 0.09 0.12 0.09 0.09 0.09 0.10 0.08 0.02 0.02 0.01 0.03 0.03 0.01 0.01 0.02 0.03 0.03 0.07 0.06 0.06 0.04 0.04 0.05 0.06 0.07 0.09 0.09 0.09 0.09 0.10 0.10 0.10 0.11 0.12 0.14 0.15 0.14 0.15 0.14 0.14
0.01 0.04 0.06 0.06 0.05 0.09 0.10 0.09 0.08 0.06 0.05 0.03 0.03 0.03 0.03 0.04 0.02 0.03 0.04 0.06 0.07 0.07 0.08 0.08 0.08 0.08 0.09 0.09 0.09 0.09 0.10 0.10 0.11 0.11 0.12 0.12 0.13 0.13 0.11 0.11 0.16 0.14 0.14 0.13

GFSNW_prec_precacc24_102.txt.gz
Total_Precipitation_Accumulation
0.06 0.06 0.07 0.11 0.19 0.16 0.08 0.10 0.08 0.08 0.20 0.34 0.15 0.11 0.04 0.01 0.03 0.09 0.23 0.25 0.30 0.43 0.23 0.33 0.24 0.12 0.03 0.00 0.00 0.00 0.00 0.01 0.02 0.02 0.00 0.01 0.03 0.05 0.19 0.44 0.23 0.14 0.20 0.15
0.06 0.07 0.10 0.14 0.16 0.13 0.13 0.18 0.04 0.12 0.44 0.29 0.18 0.08 0.02 0.01 0.01 0.03 0.15 0.16 0.28 0.44 0.37 0.37 0.23 0.16 0.03 0.00 0.00 0.01 0.01 0.02 0.03 0.12 0.08 0.05 0.05 0.09 0.21 0.27 0.37 0.41 0.33 0.11
0.07 0.07 0.14 0.16 0.11 0.13 0.16 0.29 0.14 0.07 0.30 0.41 0.15 0.12 0.05 0.02 0.00 0.01 0.07 0.24 0.44 0.49 0.42 0.28 0.31 0.23 0.05 0.02 0.00 0.00 0.00 0.02 0.05 0.15 0.35 0.41 0.21 0.16 0.16 0.30 0.40 0.17 0.17 0.11
0.07 0.07 0.16 0.18 0.11 0.16 0.17 0.18 0.12 0.10 0.16 0.20 0.16 0.21 0.23 0.15 0.12 0.10 0.18 0.47 0.32 0.34 0.41 0.31 0.25 0.22 0.07 0.04 0.01 0.01 0.01 0.00 0.00 0.03 0.12 0.21 0.25 0.23 0.23 0.30 0.21 0.26 0.04 0.05
0.11 0.08 0.09 0.14 0.13 0.18 0.17 0.13 0.05 0.05 0.06 0.13 0.27 0.28 0.18 0.12 0.19 0.37 0.34 0.10 0.05 0.08 0.09 0.19 0.18 0.15 0.08 0.06 0.02 0.02 0.01 0.00 0.00 0.00 0.00 0.01 0.01 0.05 0.13 0.19 0.27 0.27 0.13 0.10
0.21 0.16 0.12 0.14 0.12 0.14 0.15 0.08 0.07 0.11 0.07 0.03 0.09 0.24 0.26 0.20 0.19 0.15 0.06 0.02 0.04 0.03 0.01 0.00 0.00 0.00 0.00 0.00 0.00 0.00 0.00 0.00 0.00 0.00 0.00 0.00 0.00 0.00 0.00 0.02 0.04 0.11 0.10 0.07
0.17 0.25 0.26 0.24 0.20 0.07 0.07 0.04 0.05 0.12 0.04 0.04 0.02 0.03 0.07 0.09 0.07 0.12 0.05 0.05 0.05 0.03 0.00 0.01 0.01 0.00 0.00 0.00 0.00 0.00 0.00 0.00 0.00 0.00 0.00 0.01 0.00 0.01 0.00 0.08 0.15 0.06 0.07 0.07
0.13 0.21 0.25 0.22 0.23 0.16 0.04 0.05 0.09 0.07 0.05 0.01 0.01 0.02 0.04 0.09 0.10 0.08 0.07 0.05 0.07 0.11 0.06 0.07 0.04 0.02 0.02 0.00 0.00 0.00 0.00 0.00 0.01 0.00 0.00 0.00 0.00 0.00 0.00 0.03 0.05 0.04 0.13 0.34
0.07 0.10 0.19 0.26 0.24 0.26 0.14 0.03 0.07 0.16 0.14 0.02 0.00 0.00 0.01 0.06 0.13 0.15 0.09 0.09 0.17 0.15 0.19 0.16 0.09 0.07 0.06 0.04 0.02 0.00 0.00 0.00 0.02 0.02 0.02 0.00 0.00 0.00 0.00 0.00 0.03 0.02 0.12 0.58
0.08 0.09 0.14 0.24 0.27 0.33 0.25 0.06 0.03 0.19 0.17 0.02 0.02 0.01 0.01 0.04 0.10 0.15 0.15 0.15 0.25 0.28 0.16 0.12 0.05 0.06 0.05 0.12 0.14 0.04 0.02 0.03 0.04 0.02 0.05 0.02 0.00 0.00 0.00 0.04 0.04 0.00 0.02 0.20
0.06 0.11 0.15 0.29 0.41 0.40 0.39 0.17 0.03 0.08 0.08 0.01 0.01 0.02 0.05 0.05 0.13 0.23 0.22 0.33 0.25 0.28 0.16 0.10 0.08 0.10 0.10 0.06 0.14 0.14 0.08 0.09 0.06 0.05 0.09 0.05 0.00 0.02 0.09 0.11 0.02 0.01 0.02 0.03
0.09 0.10 0.12 0.20 0.40 0.59 0.75 0.51 0.06 0.10 0.14 0.04 0.02 0.01 0.01 0.04 0.12 0.30 0.33 0.26 0.38 0.26 0.30 0.20 0.16 0.16 0.13 0.09 0.12 0.21 0.30 0.08 0.08 0.05 0.10 0.18 0.14 0.09 0.09 0.03 0.05 0.06 0.06 0.10
0.07 0.09 0.13 0.17 0.23 0.49 1.11 0.84 0.10 0.48 0.43 0.12 0.02 0.01 0.00 0.00 0.03 0.11 0.21 0.27 0.40 0.50 0.48 0.47 0.37 0.20 0.10 0.10 0.14 0.29 0.55 0.46 0.37 0.43 0.52 0.33 0.43 0.32 0.09 0.09 0.19 0.20 0.13 0.07
0.09 0.11 0.12 0.15 0.20 0.31 0.94 1.20 0.30 0.40 0.37 0.12 0.01 0.00 0.00 0.01 0.01 0.04 0.06 0.09 0.14 0.25 0.41 0.33 0.22 0.12 0.07 0.09 0.16 0.26 0.28 0.55 0.69 0.84 0.72 0.57 0.67 0.66 0.47 0.34 0.16 0.14 0.17 0.13
0.06 0.10 0.17 0.20 0.23 0.39 0.95 0.84 0.25 0.19 0.19 0.13 0.03 0.01 0.00 0.02 0.05 0.05 0.07 0.09 0.13 0.22 0.26 0.24 0.17 0.11 0.13 0.12 0.29 0.30 0.17 0.41 0.74 1.18 0.96 0.79 0.77 0.45 0.32 0.28 0.25 0.13 0.05 0.02
0.07 0.10 0.21 0.28 0.36 0.78 1.70 2.24 1.03 0.18 0.35 0.46 0.22 0.05 0.01 0.00 0.01 0.03 0.04 0.10 0.21 0.28 0.27 0.18 0.15 0.16 0.46 0.49 0.48 0.30 0.16 0.17 0.30 0.55 0.87 0.80 0.64 0.41 0.24 0.15 0.08 0.03 0.00 0.00
0.16 0.23 0.31 0.43 0.68 0.74 0.58 0.61 0.33 0.16 0.49 0.77 0.34 0.11 0.06 0.02 0.03 0.04 0.07 0.19 0.28 0.21 0.18 0.10 0.11 0.18 0.32 0.53 0.50 0.38 0.27 0.28 0.34 0.35 0.42 0.29 0.18 0.11 0.05 0.01 0.00 0.00 0.00 0.00
0.29 0.38 0.43 0.65 1.05 0.92 0.54 0.10 0.01 0.24 0.83 0.52 0.18 0.20 0.29 0.10 0.08 0.09 0.10 0.27 0.31 0.30 0.20 0.07 0.09 0.22 0.31 0.37 0.13 0.04 0.08 0.12 0.15 0.16 0.11 0.10 0.06 0.01 0.00 0.00 0.00 0.00 0.00 0.00
0.58 0.69 1.19 1.89 1.88 1.53 0.62 0.17 0.12 0.21 0.61 0.35 0.09 0.11 0.32 0.19 0.18 0.12 0.17 0.13 0.31 0.27 0.15 0.06 0.19 0.22 0.34 0.22 0.02 0.01 0.01 0.01 0.01 0.00 0.02 0.04 0.02 0.00 0.00 0.00 0.00 0.00 0.01 0.01
0.73 1.40 2.09 2.41 1.09 0.36 0.56 1.14 0.97 0.80 0.51 0.23 0.06 0.13 0.34 0.34 0.22 0.11 0.14 0.14 0.11 0.23 0.10 0.15 0.21 0.16 0.12 0.03 0.01 0.00 0.00 0.00 0.00 0.00 0.01 0.01 0.01 0.01 0.01 0.00 0.01 0.01 0.02 0.02
1.24 1.45 1.21 0.88 0.50 0.40 0.75 0.98 0.60 0.35 0.24 0.09 0.08 0.11 0.12 0.40 0.26 0.12 0.09 0.13 0.17 0.15 0.14 0.30 0.30 0.11 0.09 0.02 0.00 0.00 0.00 0.00 0.00 0.00 0.01 0.02 0.02 0.02 0.02 0.01 0.01 0.01 0.02 0.04
0.51 0.56 0.93 1.17 0.81 0.81 0.71 0.39 0.19 0.08 0.06 0.02 0.05 0.10 0.11 0.36 0.43 0.27 0.17 0.21 0.27 0.25 0.31 0.34 0.16 0.12 0.03 0.00 0.00 0.00 0.00 0.00 0.00 0.00 0.00 0.01 0.02 0.02 0.01 0.02 0.02 0.03 0.04 0.06
0.41 0.40 0.57 0.79 0.66 0.49 0.25 0.12 0.10 0.05 0.03 0.02 0.04 0.11 0.10 0.24 0.44 0.52 0.15 0.16 0.28 0.21 0.30 0.20 0.08 0.06 0.02 0.00 0.00 0.00 0.00 0.00 0.00 0.00 0.00 0.01 0.01 0.02 0.02 0.03 0.04 0.03 0.04 0.06
0.51 0.41 0.29 0.25 0.17 0.05 0.05 0.04 0.02 0.01 0.02 0.02 0.03 0.04 0.06 0.15 0.25 0.33 0.10 0.04 0.07 0.16 0.07 0.05 0.08 0.04 0.02 0.01 0.01 0.01 0.01 0.01 0.01 0.01 0.01 0.02 0.02 0.03 0.04 0.04 0.05 0.04 0.06 0.08
0.21 0.08 0.04 0.04 0.05 0.08 0.08 0.03 0.03 0.03 0.02 0.02 0.03 0.02 0.05 0.06 0.11 0.04 0.03 0.03 0.03 0.03 0.06 0.06 0.05 0.03 0.02 0.02 0.02 0.02 0.02 0.02 0.02 0.02 0.02 0.03 0.04 0.04 0.06 0.07 0.06 0.06 0.07 0.07
0.04 0.03 0.07 0.10 0.08 0.11 0.08 0.08 0.08 0.07 0.05 0.01 0.01 0.02 0.04 0.05 0.04 0.02 0.01 0.03 0.03 0.06 0.05 0.05 0.02 0.01 0.01 0.01 0.01 0.02 0.02 0.02 0.02 0.03 0.03 0.03 0.04 0.05 0.06 0.07 0.07 0.07 0.07 0.07
0.02 0.04 0.06 0.05 0.05 0.09 0.10 0.10 0.08 0.05 0.02 0.01 0.00 0.00 0.01 0.01 0.00 0.01 0.02 0.04 0.05 0.04 0.04 0.02 0.01 0.01 0.01 0.01 0.02 0.02 0.02 0.02 0.03 0.03 0.04 0.04 0.04 0.04 0.05 0.05 0.07 0.06 0.06 0.06

GFSNW_prec_precacc24_105.txt.gz
Total_Precipitation_Accumulation
0.04 0.04 0.06 0.10 0.16 0.13 0.07 0.08 0.06 0.05 0.13 0.29 0.12 0.10 0.04 0.01 0.03 0.09 0.23 0.26 0.36 0.54 0.31 0.44 0.46 0.20 0.04 0.00 0.00 0.00 0.01 0.04 0.06 0.05 0.00 0.01 0.03 0.05 0.19 0.45 0.24 0.14 0.21 0.19
0.05 0.06 0.10 0.13 0.13 0.10 0.11 0.15 0.02 0.07 0.33 0.25 0.17 0.06 0.01 0.01 0.01 0.03 0.16 0.20 0.43 0.61 0.62 0.67 0.63 0.22 0.04 0.00 0.00 0.02 0.02 0.06 0.10 0.19 0.11 0.07 0.06 0.09 0.21 0.28 0.38 0.41 0.32 0.14
0.06 0.06 0.13 0.16 0.09 0.10 0.12 0.24 0.11 0.03 0.23 0.36 0.13 0.10 0.04 0.01 0.00 0.01 0.08 0.29 0.57 0.62 0.76 0.70 0.62 0.33 0.06 0.02 0.00 0.00 0.01 0.04 0.07 0.15 0.34 0.42 0.23 0.16 0.17 0.31 0.41 0.18 0.17 0.11
0.06 0.06 0.15 0.17 0.08 0.11 0.11 0.14 0.10 0.08 0.13 0.19 0.15 0.17 0.20 0.14 0.12 0.10 0.20 0.51 0.39 0.44 0.61 0.45 0.43 0.38 0.13 0.06 0.02 0.01 0.01 0.02 0.02 0.03 0.11 0.22 0.27 0.24 0.24 0.30 0.21 0.26 0.05 0.06
0.10 0.08 0.08 0.14 0.09 0.12 0.12 0.10 0.03 0.02 0.03 0.10 0.25 0.21 0.10 0.10 0.20 0.38 0.34 0.11 0.06 0.10 0.11 0.25 0.23 0.24 0.18 0.16 0.08 0.05 0.02 0.00 0.00 0.00 0.00 0.02 0.01 0.05 0.13 0.19 0.27 0.27 0.13 0.12
0.16 0.14 0.11 0.13 0.11 0.09 0.09 0.05 0.03 0.06 0.04 0.01 0.05 0.16 0.22 0.17 0.16 0.13 0.06 0.02 0.03 0.02 0.01 0.00 0.00 0.00 0.00 0.00 0.02 0.03 0.02 0.00 0.00 0.00 0.00 0.00 0.00 0.00 0.00 0.02 0.04 0.12 0.12 0.10
0.11 0.20 0.24 0.23 0.20 0.05 0.04 0.02 0.03 0.08 0.02 0.01 0.01 0.01 0.03 0.04 0.02 0.08 0.05 0.05 0.04 0.02 0.00 0.01 0.01 0.00 0.00 0.00 0.00 0.00 0.00 0.00 0.00 0.00 0.00 0.01 0.00 0.01 0.00 0.08 0.15 0.06 0.07 0.08
0.07 0.13 0.19 0.19 0.22 0.15 0.02 0.02 0.05 0.05 0.03 0.00 0.00 0.00 0.02 0.05 0.05 0.04 0.05 0.05 0.07 0.10 0.04 0.06 0.03 0.01 0.02 0.00 0.00 0.00 0.00 0.00 0.00 0.00 0.00 0.00 0.02 0.00 0.00 0.03 0.06 0.04 0.14 0.38
0.05 0.06 0.11 0.20 0.22 0.26 0.11 0.01 0.04 0.10 0.11 0.02 0.00 0.00 0.01 0.03 0.09 0.10 0.06 0.08 0.16 0.13 0.16 0.12 0.07 0.04 0.05 0.03 0.01 0.00 0.00 0.00 0.01 0.01 0.02 0.01 0.02 0.01 0.00 0.00 0.06 0.02 0.12 0.59
0.05 0.06 0.08 0.14 0.20 0.30 0.20 0.04 0.02 0.13 0.13 0.01 0.00 0.00 0.01 0.01 0.03 0.08 0.12 0.13 0.21 0.20 0.11 0.08 0.03 0.04 0.04 0.11 0.11 0.04 0.01 0.02 0.03 0.01 0.05 0.02 0.00 0.00 0.00 0.06 0.06 0.01 0.02 0.20
0.04 0.08 0.12 0.18 0.25 0.31 0.29 0.14 0.01 0.06 0.07 0.01 0.00 0.00 0.02 0.03 0.07 0.13 0.17 0.28 0.18 0.18 0.10 0.08 0.05 0.09 0.10 0.08 0.13 0.14 0.08 0.10 0.05 0.05 0.09 0.06 0.00 0.01 0.08 0.11 0.02 0.02 0.02 0.03
0.08 0.08 0.10 0.16 0.29 0.45 0.61 0.37 0.03 0.06 0.11 0.02 0.01 0.00 0.00 0.01 0.08 0.24 0.28 0.25 0.36 0.25 0.28 0.18 0.12 0.16 0.12 0.09 0.16 0.21 0.29 0.10 0.06 0.05 0.11 0.19 0.14 0.09 0.09 0.03 0.06 0.07 0.07 0.11
0.07 0.08 0.11 0.13 0.16 0.40 0.94 0.68 0.08 0.42 0.35 0.08 0.01 0.00 0.00 0.00 0.01 0.08 0.17 0.25 0.37 0.47 0.46 0.41 0.32 0.20 0.11 0.11 0.16 0.29 0.55 0.46 0.34 0.40 0.51 0.32 0.43 0.31 0.10 0.09 0.19 0.20 0.13 0.07
0.09 0.10 0.10 0.11 0.16 0.25 0.80 1.07 0.29 0.37 0.31 0.08 0.01 0.00 0.00 0.00 0.00 0.01 0.04 0.06 0.10 0.20 0.35 0.29 0.18 0.12 0.08 0.09 0.18 0.27 0.28 0.55 0.69 0.85 0.73 0.58 0.66 0.66 0.47 0.34 0.16 0.14 0.17 0.13
0.05 0.08 0.12 0.13 0.18 0.32 0.83 0.76 0.23 0.17 0.17 0.12 0.03 0.01 0.00 0.00 0.00 0.00 0.03 0.05 0.05 0.12 0.18 0.22 0.17 0.10 0.11 0.12 0.29 0.30 0.16 0.40 0.73 1.18 0.96 0.81 0.77 0.46 0.32 0.28 0.25 0.13 0.05 0.02
0.05 0.07 0.13 0.19 0.29 0.65 1.53 2.06 0.94 0.18 0.35 0.45 0.18 0.06 0.01 0.00 0.00 0.00 0.00 0.04 0.10 0.16 0.18 0.13 0.12 0.13 0.42 0.45 0.48 0.28 0.15 0.17 0.30 0.55 0.87 0.81 0.64 0.42 0.24 0.15 0.08 0.03 0.00 0.00
0.12 0.13 0.19 0.33 0.62 0.74 0.58 0.56 0.26 0.15 0.47 0.74 0.29 0.11 0.05 0.01 0.01 0.01 0.02 0.08 0.16 0.16 0.16 0.09 0.06 0.14 0.29 0.49 0.46 0.37 0.27 0.28 0.34 0.36 0.43 0.31 0.19 0.12 0.05 0.01 0.00 0.00 0.00 0.00
0.14 0.20 0.32 0.54 0.96 0.97 0.56 0.12 0.01 0.24 0.77 0.47 0.16 0.18 0.25 0.08 0.06 0.06 0.06 0.10 0.16 0.18 0.13 0.06 0.06 0.17 0.24 0.30 0.12 0.04 0.08 0.12 0.15 0.16 0.12 0.12 0.08 0.01 0.00 0.00 0.00 0.00 0.00 0.00
0.41 0.56 1.04 1.75 1.84 1.60 0.63 0.17 0.11 0.19 0.60 0.34 0.08 0.11 0.31 0.18 0.16 0.09 0.15 0.06 0.20 0.21 0.11 0.04 0.18 0.18 0.28 0.18 0.02 0.01 0.01 0.01 0.01 0.00 0.02 0.04 0.03 0.01 0.00 0.00 0.00 0.00 0.01 0.01
0.66 1.36 2.09 2.30 1.06 0.40 0.55 1.21 0.96 0.76 0.52 0.23 0.06 0.11 0.33 0.33 0.20 0.10 0.13 0.15 0.11 0.21 0.08 0.12 0.17 0.11 0.10 0.03 0.01 0.00 0.00 0.00 0.00 0.00 0.01 0.01 0.01 0.01 0.01 0.00 0.01 0.01 0.01 0.01
1.27 1.50 1.15 0.78 0.53 0.42 0.78 1.02 0.64 0.37 0.24 0.09 0.06 0.09 0.12 0.40 0.25 0.11 0.08 0.09 0.13 0.08 0.09 0.23 0.24 0.09 0.08 0.02 0.00 0.00 0.00 0.00 0.00 0.00 0.01 0.01 0.02 0.02 0.02 0.01 0.00 0.00 0.01 0.02
0.55 0.55 0.91 1.33 0.93 0.82 0.73 0.41 0.20 0.07 0.04 0.02 0.05 0.09 0.10 0.35 0.39 0.24 0.12 0.11 0.21 0.18 0.27 0.29 0.14 0.11 0.03 0.00 0.00 0.00 0.00 0.00 0.00 0.00 0.00 0.00 0.02 0.02 0.01 0.01 0.01 0.02 0.03 0.03
0.46 0.54 0.69 1.04 0.75 0.51 0.26 0.13 0.09 0.04 0.03 0.01 0.02 0.09 0.06 0.19 0.41 0.50 0.12 0.13 0.25 0.22 0.30 0.19 0.07 0.06 0.01 0.00 0.00 0.00 0.00 0.00 0.00 0.00 0.00 0.01 0.01 0.01 0.01 0.02 0.02 0.02 0.03 0.04
0.61 0.57 0.39 0.32 0.23 0.05 0.04 0.04 0.02 0.01 0.01 0.01 0.01 0.03 0.03 0.14 0.24 0.32 0.15 0.06 0.08 0.18 0.07 0.05 0.07 0.03 0.02 0.01 0.00 0.00 0.01 0.00 0.01 0.01 0.00 0.01 0.01 0.02 0.02 0.02 0.02 0.02 0.03 0.05
0.37 0.27 0.09 0.04 0.05 0.07 0.08 0.03 0.02 0.02 0.01 0.02 0.03 0.02 0.04 0.07 0.11 0.04 0.04 0.04 0.03 0.03 0.05 0.05 0.04 0.02 0.01 0.01 0.01 0.01 0.01 0.01 0.01 0.01 0.01 0.01 0.01 0.01 0.03 0.03 0.02 0.02 0.03 0.04
0.13 0.11 0.07 0.09 0.07 0.10 0.07 0.07 0.07 0.06 0.06 0.02 0.02 0.02 0.04 0.05 0.04 0.03 0.02 0.04 0.04 0.06 0.04 0.04 0.02 0.01 0.01 0.01 0.01 0.01 0.01 0.01 0.01 0.01 0.01 0.01 0.01 0.01 0.02 0.03 0.03 0.03 0.03 0.04
0.08 0.05 0.05 0.05 0.04 0.08 0.09 0.09 0.07 0.05 0.03 0.01 0.01 0.01 0.01 0.01 0.00 0.01 0.01 0.03 0.03 0.03 0.03 0.02 0.01 0.01 0.01 0.01 0.01 0.01 0.01 0.01 0.01 0.01 0.01 0.01 0.01 0.01 0.01 0.02 0.03 0.02 0.02 0.02

GFSNW_prec_precacc24_108.txt.gz
Total_Precipitation_Accumulation
0.01 0.03 0.05 0.07 0.14 0.10 0.05 0.06 0.04 0.02 0.09 0.24 0.10 0.09 0.03 0.01 0.03 0.09 0.23 0.26 0.42 0.66 0.46 0.53 0.61 0.36 0.06 0.00 0.00 0.01 0.02 0.09 0.08 0.06 0.01 0.01 0.05 0.08 0.21 0.40 0.20 0.11 0.22 0.51
0.03 0.04 0.08 0.12 0.12 0.08 0.07 0.11 0.01 0.01 0.21 0.22 0.16 0.06 0.01 0.01 0.01 0.03 0.16 0.22 0.53 0.67 0.80 0.92 1.10 0.47 0.09 0.00 0.00 0.03 0.03 0.10 0.15 0.23 0.18 0.10 0.09 0.10 0.22 0.31 0.39 0.33 0.23 0.25
0.05 0.05 0.11 0.15 0.09 0.08 0.06 0.15 0.08 0.01 0.15 0.32 0.11 0.07 0.03 0.01 0.00 0.01 0.08 0.29 0.58 0.64 0.81 0.82 0.92 0.44 0.08 0.02 0.00 0.02 0.02 0.06 0.10 0.22 0.21 0.39 0.27 0.22 0.19 0.31 0.39 0.17 0.16 0.18
0.06 0.06 0.14 0.16 0.07 0.09 0.05 0.09 0.08 0.07 0.11 0.18 0.13 0.15 0.14 0.12 0.12 0.10 0.20 0.52 0.40 0.47 0.65 0.50 0.51 0.46 0.13 0.06 0.02 0.03 0.05 0.13 0.16 0.11 0.06 0.19 0.30 0.23 0.23 0.32 0.22 0.25 0.07 0.08
0.08 0.06 0.07 0.13 0.09 0.09 0.06 0.06 0.02 0.01 0.02 0.08 0.23 0.20 0.09 0.08 0.19 0.37 0.34 0.11 0.06 0.10 0.12 0.31 0.27 0.31 0.21 0.18 0.08 0.05 0.03 0.03 0.02 0.16 0.08 0.03 0.05 0.05 0.11 0.17 0.26 0.29 0.18 0.21
0.06 0.07 0.09 0.13 0.10 0.05 0.04 0.02 0.01 0.03 0.01 0.00 0.02 0.15 0.21 0.17 0.16 0.12 0.06 0.02 0.02 0.00 0.00 0.00 0.00 0.01 0.00 0.00 0.03 0.04 0.02 0.00 0.00 0.00 0.00 0.00 0.00 0.00 0.01 0.03 0.04 0.12 0.13 0.12
0.08 0.11 0.16 0.22 0.20 0.03 0.01 0.00 0.00 0.03 0.01 0.00 0.00 0.00 0.01 0.02 0.01 0.03 0.00 0.02 0.02 0.01 0.00 0.00 0.01 0.00 0.00 0.00 0.00 0.00 0.01 0.01 0.00 0.00 0.00 0.04 0.03 0.01 0.00 0.09 0.15 0.06 0.08 0.08
0.04 0.09 0.11 0.12 0.21 0.15 0.01 0.00 0.02 0.03 0.02 0.00 0.00 0.00 0.00 0.00 0.01 0.02 0.01 0.01 0.04 0.10 0.04 0.03 0.01 0.00 0.01 0.00 0.00 0.00 0.00 0.00 0.00 0.00 0.00 0.02 0.04 0.00 0.00 0.06 0.08 0.04 0.13 0.38
0.04 0.04 0.07 0.10 0.14 0.24 0.10 0.02 0.01 0.05 0.06 0.03 0.00 0.00 0.00 0.01 0.03 0.02 0.01 0.04 0.16 0.13 0.13 0.08 0.03 0.01 0.02 0.02 0.02 0.00 0.00 0.00 0.01 0.00 0.02 0.07 0.10 0.01 0.00 0.01 0.08 0.02 0.12 0.59
0.05 0.05 0.06 0.11 0.13 0.25 0.19 0.05 0.01 0.08 0.08 0.01 0.00 0.00 0.01 0.01 0.02 0.02 0.02 0.07 0.20 0.19 0.04 0.06 0.02 0.03 0.01 0.06 0.08 0.04 0.01 0.01 0.03 0.01 0.06 0.03 0.00 0.00 0.00 0.08 0.12 0.02 0.03 0.20
0.04 0.06 0.08 0.12 0.17 0.22 0.24 0.14 0.01 0.05 0.05 0.01 0.00 0.00 0.01 0.02 0.04 0.07 0.06 0.11 0.16 0.17 0.04 0.03 0.02 0.04 0.05 0.09 0.11 0.11 0.07 0.12 0.06 0.05 0.09 0.07 0.00 0.01 0.05 0.09 0.04 0.03 0.03 0.04
0.07 0.06 0.08 0.12 0.20 0.30 0.44 0.31 0.03 0.04 0.08 0.01 0.00 0.00 0.00 0.00 0.03 0.07 0.08 0.14 0.35 0.25 0.27 0.16 0.09 0.12 0.10 0.08 0.29 0.19 0.26 0.10 0.06 0.06 0.12 0.20 0.13 0.08 0.09 0.04 0.06 0.07 0.07 0.11
0.07 0.08 0.10 0.11 0.15 0.34 0.67 0.48 0.07 0.35 0.27 0.04 0.00 0.01 0.00 0.00 0.00 0.03 0.09 0.19 0.31 0.44 0.42 0.35 0.26 0.16 0.10 0.09 0.17 0.25 0.51 0.46 0.30 0.36 0.48 0.23 0.29 0.27 0.10 0.10 0.19 0.20 0.13 0.07
0.09 0.10 0.10 0.09 0.14 0.22 0.61 0.83 0.27 0.27 0.25 0.05 0.03 0.00 0.00 0.00 0.00 0.00 0.02 0.04 0.07 0.17 0.26 0.16 0.10 0.11 0.08 0.07 0.19 0.26 0.25 0.52 0.68 0.83 0.70 0.43 0.44 0.55 0.45 0.35 0.16 0.14 0.17 0.13
0.05 0.07 0.11 0.12 0.16 0.28 0.56 0.60 0.22 0.14 0.18 0.13 0.06 0.03 0.01 0.00 0.00 0.00 0.00 0.01 0.01 0.03 0.05 0.09 0.13 0.12 0.09 0.12 0.29 0.27 0.13 0.37 0.69 1.15 0.94 0.74 0.67 0.45 0.32 0.28 0.25 0.13 0.05 0.02
0.04 0.05 0.11 0.16 0.25 0.46 1.12 1.73 0.76 0.17 0.37 0.39 0.11 0.10 0.03 0.00 0.00 0.00 0.00 0.02 0.04 0.02 0.06 0.08 0.13 0.13 0.37 0.42 0.47 0.26 0.15 0.17 0.30 0.55 0.87 0.81 0.64 0.42 0.24 0.15 0.08 0.03 0.00 0.00
0.10 0.11 0.16 0.26 0.51 0.54 0.51 0.49 0.21 0.14 0.42 0.63 0.16 0.09 0.05 0.01 0.00 0.00 0.01 0.04 0.07 0.11 0.08 0.06 0.06 0.11 0.24 0.46 0.38 0.30 0.26 0.28 0.34 0.36 0.43 0.31 0.19 0.12 0.05 0.01 0.00 0.00 0.00 0.00
0.12 0.15 0.24 0.39 0.79 0.98 0.61 0.14 0.02 0.23 0.71 0.41 0.11 0.15 0.22 0.06 0.03 0.03 0.04 0.05 0.07 0.11 0.11 0.06 0.05 0.13 0.16 0.19 0.10 0.03 0.08 0.12 0.15 0.16 0.12 0.12 0.08 0.01 0.00 0.00 0.00 0.00 0.00 0.00
0.24 0.36 0.77 1.46 1.72 1.53 0.64 0.19 0.11 0.18 0.57 0.30 0.05 0.08 0.28 0.16 0.10 0.06 0.06 0.04 0.11 0.11 0.07 0.03 0.13 0.15 0.20 0.12 0.02 0.01 0.01 0.01 0.01 0.01 0.02 0.04 0.03 0.01 0.00 0.00 0.00 0.00 0.01 0.01
0.60 1.30 2.02 2.17 1.00 0.43 0.60 1.25 0.94 0.71 0.50 0.18 0.05 0.06 0.35 0.32 0.18 0.09 0.09 0.14 0.09 0.16 0.07 0.10 0.15 0.10 0.09 0.02 0.00 0.00 0.00 0.00 0.00 0.00 0.01 0.01 0.01 0.01 0.01 0.00 0.00 0.01 0.01 0.01
1.25 1.48 1.08 0.73 0.49 0.45 0.85 1.00 0.65 0.34 0.20 0.07 0.03 0.06 0.13 0.40 0.24 0.11 0.08 0.10 0.12 0.06 0.10 0.23 0.20 0.08 0.07 0.02 0.00 0.00 0.00 0.00 0.00 0.00 0.01 0.01 0.02 0.02 0.01 0.01 0.00 0.00 0.01 0.02
0.54 0.53 0.91 1.39 0.99 0.85 0.78 0.44 0.22 0.04 0.02 0.01 0.03 0.08 0.11 0.37 0.38 0.24 0.15 0.12 0.21 0.15 0.29 0.25 0.10 0.10 0.03 0.00 0.00 0.00 0.00 0.00 0.00 0.00 0.00 0.00 0.01 0.01 0.00 0.01 0.01 0.02 0.02 0.02
0.51 0.64 0.86 1.16 0.82 0.54 0.25 0.13 0.07 0.03 0.02 0.01 0.02 0.09 0.07 0.21 0.36 0.39 0.11 0.07 0.19 0.22 0.27 0.16 0.06 0.05 0.01 0.00 0.00 0.00 0.00 0.00 0.00 0.00 0.00 0.00 0.01 0.01 0.01 0.01 0.01 0.01 0.01 0.02
0.66 0.65 0.51 0.38 0.27 0.05 0.04 0.02 0.01 0.01 0.01 0.00 0.01 0.02 0.02 0.13 0.24 0.31 0.15 0.08 0.08 0.17 0.07 0.04 0.05 0.03 0.01 0.00 0.00 0.00 0.00 0.00 0.00 0.00 0.00 0.00 0.00 0.01 0.01 0.01 0.01 0.00 0.01 0.02
0.41 0.31 0.18 0.05 0.05 0.07 0.07 0.03 0.02 0.02 0.01 0.01 0.02 0.01 0.02 0.06 0.11 0.04 0.04 0.04 0.04 0.02 0.04 0.03 0.03 0.01 0.01 0.00 0.00 0.00 0.00 0.00 0.00 0.00 0.00 0.00 0.00 0.00 0.01 0.01 0.01 0.00 0.01 0.01
0.15 0.13 0.10 0.10 0.04 0.08 0.06 0.05 0.05 0.06 0.07 0.03 0.03 0.03 0.04 0.04 0.05 0.03 0.02 0.04 0.06 0.06 0.02 0.02 0.01 0.01 0.00 0.01 0.00 0.00 0.00 0.00 0.00 0.00 0.00 0.00 0.00 0.00 0.01 0.01 0.01 0.01 0.01 0.02
0.09 0.07 0.05 0.04 0.05 0.07 0.08 0.08 0.06 0.06 0.06 0.03 0.04 0.02 0.01 0.02 0.01 0.01 0.02 0.02 0.02 0.02 0.02 0.01 0.00 0.00 0.00 0.00 0.00 0.01 0.00 0.00 0.01 0.01 0.01 0.00 0.00 0.00 0.00 0.02 0.01 0.01 0.01 0.00

GFSNW_prec_precacc24_111.txt.gz
Total_Precipitation_Accumulation
0.01 0.02 0.03 0.06 0.12 0.06 0.02 0.02 0.02 0.01 0.08 0.21 0.07 0.05 0.03 0.01 0.03 0.09 0.23 0.26 0.42 0.67 0.48 0.54 0.62 0.35 0.22 0.08 0.00 0.02 0.07 0.49 0.19 0.08 0.06 0.03 0.13 0.12 0.21 0.40 0.23 0.23 0.39 1.00
0.02 0.03 0.05 0.10 0.09 0.04 0.02 0.05 0.01 0.00 0.10 0.20 0.12 0.05 0.01 0.01 0.01 0.03 0.16 0.22 0.54 0.68 0.81 0.98 1.13 0.56 0.18 0.04 0.02 0.09 0.09 0.21 0.20 0.26 0.22 0.11 0.12 0.11 0.21 0.32 0.34 0.31 0.32 0.78
0.04 0.04 0.08 0.13 0.07 0.05 0.02 0.01 0.03 0.01 0.06 0.19 0.09 0.06 0.02 0.01 0.00 0.01 0.08 0.29 0.58 0.64 0.81 0.86 0.97 0.51 0.10 0.02 0.00 0.02 0.06 0.10 0.12 0.28 0.20 0.17 0.23 0.25 0.24 0.37 0.37 0.25 0.28 0.41
0.03 0.05 0.11 0.15 0.07 0.05 0.01 0.02 0.02 0.06 0.10 0.16 0.10 0.13 0.09 0.09 0.12 0.10 0.20 0.52 0.40 0.47 0.65 0.50 0.51 0.47 0.13 0.06 0.02 0.03 0.05 0.14 0.25 0.18 0.07 0.09 0.29 0.27 0.35 0.35 0.20 0.31 0.26 0.11
0.03 0.05 0.06 0.11 0.08 0.05 0.01 0.01 0.00 0.01 0.01 0.07 0.22 0.20 0.09 0.07 0.18 0.37 0.34 0.11 0.06 0.10 0.12 0.31 0.29 0.34 0.21 0.18 0.08 0.05 0.03 0.12 0.20 0.54 0.24 0.06 0.16 0.10 0.05 0.07 0.19 0.31 0.20 0.24
0.03 0.05 0.07 0.11 0.10 0.02 0.01 0.00 0.00 0.00 0.00 0.00 0.01 0.13 0.20 0.16 0.16 0.12 0.06 0.01 0.00 0.00 0.00 0.00 0.00 0.01 0.00 0.00 0.03 0.04 0.02 0.02 0.03 0.15 0.06 0.01 0.07 0.01 0.01 0.02 0.04 0.12 0.13 0.15
0.04 0.07 0.09 0.14 0.18 0.02 0.00 0.00 0.00 0.01 0.01 0.00 0.00 0.00 0.01 0.02 0.01 0.03 0.00 0.01 0.00 0.00 0.00 0.00 0.00 0.00 0.00 0.00 0.00 0.00 0.01 0.01 0.00 0.01 0.01 0.17 0.28 0.03 0.00 0.09 0.15 0.06 0.08 0.08
0.02 0.05 0.08 0.10 0.18 0.14 0.01 0.00 0.00 0.01 0.01 0.00 0.00 0.00 0.00 0.00 0.00 0.00 0.01 0.00 0.00 0.00 0.00 0.00 0.01 0.01 0.01 0.00 0.00 0.00 0.00 0.00 0.00 0.00 0.03 0.09 0.05 0.00 0.00 0.07 0.08 0.03 0.13 0.36
0.03 0.03 0.05 0.08 0.10 0.19 0.09 0.02 0.00 0.01 0.03 0.03 0.00 0.00 0.00 0.00 0.00 0.00 0.00 0.01 0.00 0.00 0.02 0.07 0.03 0.01 0.01 0.02 0.02 0.00 0.00 0.00 0.01 0.00 0.03 0.14 0.12 0.01 0.00 0.01 0.09 0.02 0.12 0.57
0.04 0.05 0.05 0.09 0.11 0.19 0.13 0.05 0.00 0.05 0.04 0.01 0.00 0.00 0.00 0.00 0.00 0.00 0.00 0.01 0.03 0.09 0.03 0.05 0.02 0.03 0.00 0.04 0.03 0.03 0.01 0.01 0.02 0.02 0.07 0.04 0.00 0.00 0.00 0.08 0.15 0.03 0.03 0.20
0.03 0.05 0.07 0.10 0.13 0.20 0.18 0.13 0.01 0.04 0.04 0.01 0.00 0.00 0.00 0.01 0.01 0.04 0.01 0.01 0.03 0.16 0.05 0.02 0.01 0.02 0.02 0.11 0.05 0.08 0.07 0.14 0.04 0.04 0.09 0.07 0.00 0.01 0.05 0.08 0.05 0.04 0.04 0.04
0.06 0.06 0.07 0.11 0.16 0.20 0.32 0.25 0.04 0.03 0.07 0.01 0.00 0.00 0.00 0.00 0.00 0.01 0.01 0.08 0.12 0.19 0.26 0.15 0.06 0.06 0.04 0.04 0.33 0.12 0.24 0.10 0.06 0.06 0.12 0.19 0.07 0.05 0.06 0.03 0.07 0.08 0.07 0.11
0.07 0.06 0.07 0.08 0.12 0.25 0.42 0.32 0.06 0.27 0.21 0.03 0.00 0.02 0.00 0.00 0.00 0.00 0.01 0.15 0.24 0.32 0.33 0.30 0.21 0.12 0.06 0.06 0.16 0.21 0.39 0.42 0.29 0.35 0.44 0.20 0.12 0.12 0.09 0.09 0.19 0.20 0.13 0.07
0.10 0.09 0.08 0.06 0.10 0.19 0.49 0.56 0.17 0.18 0.21 0.04 0.04 0.01 0.00 0.00 0.00 0.00 0.00 0.01 0.04 0.11 0.17 0.13 0.05 0.07 0.05 0.05 0.18 0.24 0.18 0.43 0.64 0.70 0.50 0.32 0.21 0.27 0.36 0.34 0.16 0.14 0.17 0.13
0.05 0.07 0.08 0.09 0.13 0.23 0.46 0.51 0.19 0.10 0.17 0.13 0.06 0.04 0.01 0.00 0.00 0.00 0.00 0.00 0.00 0.02 0.03 0.05 0.08 0.07 0.06 0.09 0.28 0.22 0.11 0.24 0.54 0.85 0.73 0.61 0.51 0.37 0.31 0.28 0.25 0.13 0.05 0.02
0.04 0.05 0.08 0.13 0.22 0.37 0.76 1.32 0.51 0.12 0.37 0.35 0.09 0.10 0.04 0.00 0.00 0.00 0.00 0.01 0.02 0.01 0.04 0.04 0.06 0.07 0.27 0.39 0.43 0.22 0.14 0.17 0.28 0.50 0.79 0.77 0.62 0.41 0.24 0.15 0.08 0.03 0.00 0.00
0.10 0.10 0.13 0.22 0.46 0.49 0.41 0.41 0.20 0.12 0.34 0.48 0.13 0.08 0.02 0.01 0.00 0.00 0.00 0.01 0.05 0.09 0.06 0.04 0.05 0.09 0.22 0.43 0.26 0.20 0.20 0.26 0.34 0.36 0.42 0.31 0.19 0.12 0.05 0.01 0.00 0.00 0.00 0.00
0.10 0.12 0.20 0.36 0.78 0.94 0.50 0.12 0.06 0.23 0.58 0.34 0.09 0.06 0.05 0.03 0.02 0.02 0.01 0.02 0.03 0.06 0.07 0.05 0.04 0.10 0.14 0.10 0.07 0.03 0.05 0.08 0.13 0.16 0.12 0.12 0.08 0.01 0.00 0.00 0.00 0.00 0.00 0.00
0.16 0.25 0.65 1.33 1.58 1.33 0.48 0.17 0.11 0.19 0.54 0.29 0.04 0.03 0.14 0.10 0.07 0.05 0.04 0.03 0.06 0.06 0.05 0.03 0.10 0.11 0.11 0.07 0.01 0.01 0.01 0.01 0.01 0.01 0.02 0.04 0.03 0.01 0.00 0.00 0.00 0.00 0.01 0.01
0.50 1.18 1.88 1.94 0.82 0.37 0.65 1.26 0.96 0.75 0.52 0.16 0.02 0.03 0.18 0.25 0.08 0.06 0.03 0.06 0.08 0.15 0.06 0.07 0.12 0.06 0.07 0.02 0.00 0.00 0.00 0.00 0.00 0.00 0.00 0.01 0.01 0.01 0.00 0.00 0.00 0.01 0.01 0.01
1.13 1.33 0.94 0.57 0.42 0.46 0.90 1.02 0.71 0.38 0.20 0.06 0.00 0.02 0.12 0.38 0.19 0.09 0.07 0.10 0.11 0.05 0.10 0.21 0.14 0.06 0.05 0.02 0.00 0.00 0.00 0.00 0.00 0.00 0.01 0.01 0.02 0.01 0.00 0.00 0.00 0.00 0.01 0.01
0.53 0.47 0.84 1.41 1.00 0.88 0.85 0.48 0.22 0.03 0.00 0.00 0.01 0.03 0.09 0.39 0.40 0.24 0.13 0.12 0.20 0.12 0.28 0.20 0.06 0.07 0.03 0.00 0.00 0.00 0.00 0.00 0.00 0.00 0.00 0.00 0.01 0.00 0.00 0.00 0.00 0.01 0.01 0.01
0.51 0.66 0.93 1.26 0.82 0.53 0.24 0.15 0.06 0.01 0.01 0.01 0.02 0.09 0.09 0.22 0.34 0.33 0.11 0.06 0.18 0.21 0.24 0.14 0.04 0.03 0.01 0.00 0.00 0.00 0.00 0.00 0.00 0.00 0.00 0.00 0.01 0.00 0.00 0.00 0.01 0.00 0.00 0.01
0.67 0.74 0.58 0.41 0.29 0.05 0.02 0.01 0.01 0.01 0.00 0.00 0.01 0.02 0.02 0.13 0.23 0.27 0.14 0.07 0.07 0.11 0.05 0.04 0.03 0.02 0.01 0.00 0.00 0.00 0.00 0.00 0.00 0.00 0.00 0.00 0.00 0.00 0.01 0.00 0.00 0.00 0.00 0.01
0.44 0.38 0.24 0.05 0.06 0.05 0.07 0.05 0.03 0.02 0.00 0.01 0.01 0.01 0.02 0.05 0.11 0.04 0.04 0.04 0.04 0.02 0.03 0.02 0.01 0.01 0.01 0.00 0.00 0.00 0.00 0.00 0.00 0.00 0.00 0.00 0.00 0.00 0.01 0.01 0.00 0.00 0.00 0.00
0.16 0.13 0.11 0.11 0.03 0.06 0.05 0.06 0.09 0.05 0.05 0.03 0.03 0.03 0.03 0.02 0.05 0.03 0.01 0.03 0.05 0.05 0.01 0.01 0.01 0.01 0.00 0.00 0.00 0.00 0.00 0.00 0.00 0.00 0.00 0.00 0.00 0.00 0.00 0.01 0.00 0.00 0.00 0.00
0.09 0.07 0.04 0.04 0.04 0.06 0.06 0.07 0.10 0.11 0.06 0.02 0.05 0.03 0.01 0.02 0.01 0.01 0.02 0.01 0.01 0.01 0.02 0.01 0.00 0.00 0.00 0.00 0.00 0.00 0.00 0.00 0.00 0.00 0.00 0.00 0.00 0.00 0.00 0.01 0.01 0.01 0.00 0.00

GFSNW_prec_precacc24_114.txt.gz
Total_Precipitation_Accumulation
0.01 0.01 0.02 0.03 0.08 0.03 0.00 0.00 0.00 0.00 0.05 0.21 0.05 0.02 0.02 0.01 0.03 0.09 0.23 0.26 0.43 0.67 0.48 0.54 0.62 0.35 0.37 0.13 0.02 0.03 0.07 0.66 0.51 0.17 0.09 0.06 0.14 0.11 0.11 0.33 0.31 0.31 0.75 1.31
0.01 0.02 0.04 0.08 0.06 0.01 0.00 0.01 0.00 0.00 0.05 0.19 0.09 0.02 0.01 0.01 0.01 0.03 0.16 0.22 0.54 0.68 0.81 0.98 1.13 0.57 0.18 0.05 0.03 0.13 0.14 0.49 0.30 0.31 0.42 0.17 0.11 0.10 0.19 0.33 0.44 0.52 0.74 1.11
0.01 0.02 0.05 0.11 0.06 0.02 0.00 0.00 0.00 0.01 0.03 0.12 0.08 0.04 0.02 0.01 0.00 0.01 0.08 0.29 0.58 0.64 0.81 0.86 0.97 0.51 0.10 0.02 0.00 0.02 0.10 0.11 0.12 0.30 0.26 0.12 0.12 0.17 0.18 0.31 0.46 0.47 0.60 0.69
0.00 0.01 0.05 0.12 0.06 0.02 0.00 0.00 0.00 0.02 0.06 0.11 0.05 0.08 0.05 0.08 0.12 0.10 0.20 0.52 0.40 0.47 0.65 0.50 0.51 0.47 0.13 0.06 0.02 0.03 0.05 0.14 0.31 0.21 0.20 0.16 0.50 0.45 0.51 0.44 0.33 0.40 0.50 0.20
0.00 0.01 0.04 0.09 0.06 0.02 0.00 0.00 0.00 0.00 0.01 0.04 0.10 0.13 0.07 0.06 0.18 0.37 0.34 0.11 0.06 0.10 0.12 0.31 0.29 0.34 0.21 0.18 0.08 0.05 0.04 0.14 0.39 0.91 0.52 0.15 0.33 0.21 0.16 0.16 0.21 0.30 0.19 0.22
0.01 0.02 0.06 0.09 0.08 0.00 0.00 0.00 0.00 0.00 0.00 0.00 0.00 0.12 0.20 0.16 0.15 0.12 0.06 0.01 0.00 0.00 0.00 0.00 0.00 0.01 0.00 0.00 0.03 0.04 0.02 0.02 0.08 0.27 0.30 0.07 0.22 0.14 0.04 0.05 0.07 0.06 0.10 0.15
0.01 0.02 0.06 0.10 0.13 0.01 0.00 0.00 0.00 0.00 0.01 0.00 0.00 0.00 0.01 0.02 0.01 0.02 0.00 0.00 0.00 0.00 0.00 0.00 0.00 0.00 0.00 0.00 0.00 0.00 0.01 0.01 0.01 0.06 0.04 0.25 0.50 0.08 0.01 0.05 0.15 0.07 0.08 0.09
0.01 0.02 0.04 0.06 0.14 0.12 0.01 0.00 0.00 0.00 0.01 0.00 0.00 0.00 0.00 0.00 0.00 0.00 0.01 0.00 0.00 0.00 0.00 0.00 0.00 0.01 0.01 0.00 0.00 0.00 0.00 0.00 0.00 0.06 0.08 0.20 0.08 0.01 0.01 0.08 0.10 0.05 0.11 0.36
0.02 0.02 0.03 0.05 0.08 0.18 0.08 0.02 0.00 0.01 0.02 0.03 0.00 0.00 0.00 0.00 0.00 0.00 0.00 0.00 0.00 0.00 0.00 0.00 0.01 0.01 0.01 0.02 0.02 0.00 0.00 0.00 0.01 0.01 0.04 0.16 0.12 0.01 0.00 0.01 0.10 0.04 0.11 0.57
0.02 0.03 0.04 0.07 0.09 0.17 0.10 0.04 0.00 0.04 0.04 0.01 0.00 0.00 0.00 0.00 0.00 0.00 0.00 0.00 0.00 0.00 0.01 0.03 0.01 0.03 0.01 0.08 0.03 0.01 0.00 0.01 0.02 0.02 0.07 0.04 0.00 0.00 0.00 0.08 0.18 0.06 0.04 0.20
0.02 0.02 0.05 0.08 0.11 0.17 0.15 0.10 0.00 0.04 0.04 0.01 0.00 0.00 0.00 0.00 0.00 0.01 0.00 0.00 0.01 0.02 0.02 0.02 0.01 0.02 0.03 0.12 0.04 0.03 0.02 0.12 0.04 0.04 0.07 0.07 0.01 0.01 0.06 0.12 0.08 0.06 0.05 0.05
0.03 0.02 0.04 0.08 0.13 0.16 0.27 0.20 0.04 0.03 0.07 0.01 0.00 0.00 0.00 0.00 0.00 0.00 0.00 0.02 0.07 0.10 0.15 0.12 0.05 0.05 0.03 0.03 0.31 0.03 0.11 0.08 0.06 0.06 0.12 0.17 0.05 0.06 0.06 0.03 0.07 0.07 0.06 0.10
0.05 0.04 0.05 0.05 0.09 0.21 0.33 0.24 0.05 0.19 0.16 0.02 0.00 0.02 0.00 0.00 0.00 0.00 0.01 0.04 0.16 0.22 0.20 0.27 0.20 0.11 0.05 0.05 0.10 0.08 0.16 0.26 0.26 0.32 0.42 0.19 0.10 0.09 0.07 0.06 0.16 0.18 0.13 0.07
0.08 0.07 0.07 0.05 0.06 0.15 0.42 0.41 0.09 0.12 0.16 0.04 0.04 0.01 0.00 0.00 0.00 0.00 0.00 0.01 0.02 0.09 0.10 0.07 0.05 0.07 0.04 0.04 0.12 0.07 0.12 0.23 0.47 0.63 0.45 0.29 0.17 0.18 0.25 0.29 0.15 0.13 0.16 0.13
0.06 0.06 0.07 0.07 0.10 0.17 0.38 0.38 0.12 0.07 0.14 0.12 0.06 0.04 0.01 0.00 0.00 0.00 0.00 0.00 0.00 0.01 0.03 0.05 0.08 0.07 0.03 0.05 0.17 0.10 0.09 0.15 0.25 0.54 0.53 0.41 0.34 0.28 0.21 0.20 0.23 0.13 0.05 0.02
0.05 0.05 0.06 0.12 0.19 0.30 0.55 1.08 0.39 0.09 0.27 0.30 0.09 0.10 0.05 0.00 0.00 0.00 0.00 0.00 0.01 0.01 0.04 0.04 0.06 0.05 0.02 0.16 0.36 0.16 0.13 0.13 0.18 0.25 0.47 0.56 0.48 0.36 0.23 0.15 0.08 0.03 0.00 0.00
0.07 0.08 0.11 0.18 0.43 0.41 0.32 0.37 0.21 0.11 0.22 0.40 0.12 0.08 0.02 0.00 0.00 0.00 0.00 0.00 0.04 0.09 0.06 0.04 0.05 0.08 0.13 0.27 0.21 0.14 0.13 0.17 0.21 0.27 0.37 0.30 0.19 0.12 0.05 0.01 0.00 0.00 0.00 0.00
0.08 0.10 0.16 0.31 0.74 0.88 0.42 0.11 0.08 0.19 0.36 0.28 0.08 0.06 0.02 0.00 0.01 0.01 0.00 0.01 0.02 0.05 0.06 0.05 0.04 0.08 0.12 0.08 0.06 0.02 0.01 0.05 0.09 0.13 0.10 0.11 0.08 0.01 0.00 0.00 0.00 0.00 0.00 0.00
0.09 0.17 0.48 1.07 1.44 1.26 0.42 0.13 0.12 0.17 0.49 0.28 0.04 0.03 0.08 0.02 0.04 0.03 0.03 0.03 0.04 0.03 0.04 0.03 0.08 0.07 0.06 0.03 0.00 0.01 0.01 0.01 0.00 0.01 0.02 0.04 0.03 0.01 0.00 0.00 0.00 0.00 0.00 0.01
0.30 0.95 1.65 1.74 0.76 0.35 0.51 1.05 0.78 0.67 0.53 0.16 0.02 0.03 0.06 0.03 0.04 0.04 0.02 0.05 0.07 0.13 0.05 0.05 0.08 0.04 0.04 0.01 0.00 0.00 0.00 0.00 0.00 0.00 0.00 0.00 0.01 0.00 0.00 0.00 0.00 0.00 0.01 0.01
1.08 1.26 0.89 0.49 0.35 0.40 0.82 0.94 0.70 0.38 0.21 0.06 0.00 0.01 0.05 0.11 0.09 0.06 0.06 0.07 0.07 0.05 0.09 0.14 0.08 0.05 0.03 0.01 0.00 0.00 0.00 0.00 0.00 0.00 0.00 0.01 0.01 0.01 0.00 0.00 0.00 0.00 0.00 0.01
0.51 0.44 0.68 1.26 0.93 0.86 0.89 0.50 0.23 0.03 0.00 0.00 0.00 0.01 0.05 0.31 0.33 0.18 0.09 0.11 0.19 0.11 0.22 0.15 0.04 0.05 0.01 0.00 0.00 0.00 0.00 0.00 0.00 0.00 0.00 0.00 0.01 0.00 0.00 0.00 0.00 0.01 0.01 0.01
0.51 0.70 0.93 1.26 0.81 0.52 0.25 0.17 0.05 0.00 0.01 0.01 0.01 0.03 0.05 0.22 0.34 0.31 0.09 0.05 0.17 0.20 0.18 0.10 0.03 0.02 0.01 0.00 0.00 0.00 0.00 0.00 0.00 0.00 0.00 0.00 0.00 0.00 0.00 0.00 0.00 0.00 0.00 0.00
0.67 0.75 0.61 0.42 0.29 0.05 0.01 0.01 0.01 0.01 0.00 0.00 0.01 0.02 0.02 0.13 0.20 0.21 0.14 0.07 0.06 0.06 0.04 0.03 0.02 0.01 0.01 0.00 0.00 0.00 0.00 0.00 0.00 0.00 0.00 0.00 0.00 0.00 0.00 0.00 0.00 0.00 0.00 0.00
0.44 0.40 0.26 0.05 0.05 0.04 0.06 0.05 0.03 0.02 0.00 0.01 0.01 0.01 0.02 0.05 0.11 0.04 0.04 0.05 0.04 0.02 0.03 0.02 0.01 0.01 0.00 0.00 0.00 0.00 0.00 0.00 0.00 0.00 0.00 0.00 0.00 0.00 0.00 0.01 0.00 0.00 0.00 0.00
0.17 0.14 0.14 0.11 0.03 0.04 0.04 0.06 0.11 0.07 0.04 0.03 0.03 0.03 0.03 0.02 0.04 0.03 0.01 0.03 0.05 0.05 0.01 0.01 0.01 0.00 0.00 0.00 0.00 0.00 0.00 0.00 0.00 0.00 0.00 0.00 0.00 0.00 0.00 0.00 0.00 0.00 0.00 0.00
0.09 0.07 0.07 0.07 0.05 0.05 0.05 0.05 0.12 0.16 0.08 0.02 0.05 0.03 0.01 0.02 0.02 0.00 0.01 0.01 0.01 0.01 0.01 0.00 0.00 0.00 0.00 0.00 0.00 0.00 0.00 0.00 0.00 0.00 0.00 0.00 0.00 0.00 0.00 0.01 0.00 0.00 0.00 0.00

GFSNW_prec_precacc24_117.txt.gz
Total_Precipitation_Accumulation
0.02 0.02 0.01 0.02 0.05 0.01 0.00 0.00 0.00 0.00 0.04 0.20 0.04 0.02 0.01 0.01 0.03 0.08 0.19 0.26 0.43 0.68 0.48 0.54 0.62 0.34 0.38 0.13 0.02 0.03 0.08 0.74 0.60 0.24 0.11 0.16 0.20 0.12 0.07 0.19 0.25 0.31 0.90 1.43
0.01 0.02 0.01 0.04 0.03 0.00 0.00 0.00 0.00 0.00 0.01 0.11 0.09 0.01 0.00 0.01 0.00 0.01 0.11 0.20 0.54 0.68 0.81 0.98 1.13 0.56 0.18 0.05 0.03 0.13 0.15 0.58 0.32 0.36 0.51 0.23 0.13 0.08 0.14 0.25 0.36 0.71 0.97 1.25
0.01 0.01 0.01 0.06 0.03 0.01 0.00 0.00 0.00 0.00 0.02 0.04 0.06 0.03 0.01 0.01 0.00 0.01 0.07 0.28 0.58 0.64 0.81 0.86 0.97 0.51 0.10 0.02 0.00 0.02 0.11 0.14 0.20 0.33 0.33 0.23 0.16 0.14 0.16 0.25 0.45 0.63 0.71 0.82
0.00 0.01 0.00 0.05 0.04 0.01 0.00 0.00 0.00 0.00 0.01 0.04 0.03 0.07 0.04 0.06 0.10 0.09 0.19 0.51 0.40 0.47 0.65 0.50 0.51 0.47 0.13 0.06 0.02 0.03 0.06 0.23 0.48 0.41 0.40 0.22 0.55 0.52 0.70 0.46 0.33 0.41 0.63 0.29
0.00 0.00 0.00 0.05 0.04 0.01 0.00 0.00 0.00 0.00 0.00 0.00 0.02 0.06 0.06 0.03 0.16 0.37 0.33 0.11 0.06 0.10 0.12 0.31 0.29 0.34 0.21 0.18 0.08 0.05 0.04 0.19 0.55 1.20 0.70 0.19 0.54 0.60 0.43 0.28 0.27 0.34 0.22 0.25
0.00 0.00 0.01 0.06 0.05 0.00 0.00 0.00 0.00 0.00 0.00 0.00 0.00 0.06 0.06 0.06 0.11 0.11 0.06 0.01 0.00 0.00 0.00 0.00 0.00 0.01 0.00 0.00 0.03 0.04 0.02 0.02 0.12 0.37 0.37 0.09 0.34 0.38 0.16 0.13 0.13 0.09 0.11 0.18
0.01 0.01 0.02 0.05 0.09 0.00 0.00 0.00 0.00 0.00 0.01 0.00 0.00 0.00 0.00 0.01 0.00 0.02 0.00 0.00 0.00 0.00 0.00 0.00 0.00 0.00 0.00 0.00 0.00 0.00 0.01 0.01 0.01 0.09 0.06 0.29 0.68 0.19 0.04 0.03 0.07 0.08 0.10 0.13
0.01 0.02 0.02 0.03 0.09 0.09 0.01 0.00 0.00 0.00 0.01 0.00 0.00 0.00 0.00 0.00 0.00 0.00 0.01 0.00 0.00 0.00 0.00 0.00 0.00 0.01 0.01 0.00 0.00 0.00 0.00 0.00 0.02 0.08 0.11 0.26 0.15 0.03 0.02 0.07 0.09 0.07 0.12 0.27
0.01 0.01 0.02 0.03 0.05 0.15 0.07 0.02 0.00 0.01 0.02 0.03 0.00 0.00 0.00 0.00 0.00 0.00 0.00 0.00 0.00 0.00 0.00 0.00 0.01 0.01 0.01 0.02 0.02 0.00 0.00 0.00 0.01 0.04 0.06 0.18 0.14 0.01 0.00 0.01 0.10 0.06 0.10 0.33
0.01 0.01 0.02 0.04 0.07 0.14 0.08 0.04 0.00 0.04 0.04 0.01 0.00 0.00 0.00 0.00 0.00 0.00 0.00 0.00 0.00 0.00 0.01 0.03 0.01 0.03 0.01 0.08 0.03 0.01 0.00 0.01 0.02 0.02 0.06 0.04 0.01 0.02 0.02 0.09 0.20 0.08 0.05 0.13
0.01 0.01 0.02 0.04 0.07 0.14 0.12 0.08 0.00 0.04 0.04 0.01 0.00 0.00 0.00 0.00 0.00 0.00 0.00 0.00 0.01 0.01 0.02 0.02 0.01 0.02 0.03 0.13 0.05 0.03 0.02 0.11 0.04 0.04 0.06 0.07 0.01 0.01 0.06 0.13 0.09 0.06 0.05 0.04
0.02 0.01 0.01 0.03 0.07 0.13 0.22 0.14 0.03 0.03 0.06 0.01 0.00 0.00 0.00 0.00 0.00 0.00 0.00 0.01 0.05 0.08 0.08 0.07 0.05 0.05 0.03 0.03 0.32 0.02 0.10 0.06 0.05 0.06 0.13 0.18 0.06 0.07 0.07 0.03 0.07 0.07 0.06 0.10
0.02 0.02 0.03 0.02 0.04 0.14 0.26 0.19 0.05 0.14 0.11 0.02 0.00 0.02 0.00 0.00 0.00 0.00 0.01 0.04 0.04 0.07 0.07 0.11 0.18 0.11 0.05 0.05 0.10 0.06 0.02 0.01 0.11 0.29 0.41 0.19 0.10 0.08 0.05 0.05 0.08 0.11 0.11 0.07
0.04 0.05 0.05 0.04 0.04 0.10 0.34 0.28 0.07 0.10 0.12 0.03 0.04 0.01 0.00 0.00 0.00 0.00 0.00 0.01 0.01 0.05 0.03 0.04 0.04 0.07 0.03 0.03 0.09 0.04 0.01 0.02 0.14 0.37 0.34 0.24 0.15 0.16 0.14 0.13 0.11 0.06 0.11 0.11
0.05 0.04 0.05 0.06 0.09 0.14 0.31 0.29 0.08 0.06 0.12 0.11 0.06 0.04 0.01 0.00 0.00 0.00 0.00 0.00 0.00 0.01 0.02 0.05 0.08 0.07 0.02 0.04 0.11 0.05 0.02 0.04 0.08 0.24 0.28 0.30 0.26 0.22 0.18 0.13 0.19 0.13 0.05 0.02
0.05 0.04 0.06 0.11 0.17 0.26 0.38 0.74 0.28 0.08 0.20 0.22 0.07 0.10 0.05 0.00 0.00 0.00 0.00 0.00 0.00 0.01 0.04 0.04 0.06 0.05 0.02 0.07 0.15 0.10 0.08 0.07 0.08 0.13 0.25 0.31 0.34 0.29 0.20 0.14 0.08 0.03 0.00 0.00
0.05 0.05 0.07 0.16 0.37 0.38 0.25 0.25 0.17 0.08 0.16 0.30 0.08 0.08 0.01 0.00 0.00 0.00 0.00 0.00 0.01 0.06 0.06 0.03 0.04 0.07 0.08 0.12 0.08 0.09 0.10 0.11 0.11 0.15 0.26 0.24 0.13 0.08 0.05 0.01 0.00 0.00 0.00 0.00
0.06 0.05 0.10 0.22 0.59 0.77 0.33 0.10 0.08 0.18 0.33 0.24 0.08 0.06 0.01 0.00 0.01 0.01 0.00 0.01 0.01 0.03 0.05 0.05 0.03 0.05 0.06 0.06 0.05 0.02 0.01 0.03 0.04 0.07 0.08 0.10 0.07 0.01 0.00 0.00 0.00 0.00 0.00 0.00
0.06 0.13 0.35 0.72 1.06 1.02 0.30 0.12 0.12 0.13 0.44 0.27 0.04 0.03 0.08 0.01 0.02 0.02 0.01 0.02 0.03 0.03 0.03 0.02 0.05 0.05 0.05 0.02 0.00 0.00 0.00 0.00 0.00 0.01 0.02 0.04 0.03 0.01 0.00 0.00 0.00 0.00 0.00 0.00
0.18 0.69 1.19 1.22 0.52 0.30 0.38 0.89 0.65 0.46 0.39 0.15 0.02 0.03 0.06 0.02 0.02 0.04 0.02 0.04 0.06 0.11 0.04 0.03 0.05 0.03 0.02 0.01 0.00 0.00 0.00 0.00 0.00 0.00 0.00 0.00 0.00 0.00 0.00 0.00 0.00 0.00 0.00 0.00
0.94 0.97 0.63 0.37 0.33 0.36 0.74 0.82 0.60 0.32 0.16 0.05 0.00 0.01 0.04 0.02 0.03 0.05 0.05 0.05 0.05 0.04 0.08 0.10 0.06 0.04 0.02 0.01 0.00 0.00 0.00 0.00 0.00 0.00 0.00 0.00 0.00 0.00 0.00 0.00 0.00 0.00 0.00 0.00
0.48 0.38 0.61 1.23 0.84 0.73 0.82 0.48 0.23 0.04 0.00 0.00 0.00 0.01 0.05 0.06 0.15 0.15 0.07 0.08 0.14 0.08 0.16 0.10 0.03 0.04 0.01 0.00 0.00 0.00 0.00 0.00 0.00 0.00 0.00 0.00 0.00 0.00 0.00 0.00 0.00 0.00 0.00 0.00
0.54 0.73 0.86 1.19 0.71 0.48 0.26 0.17 0.04 0.00 0.01 0.01 0.01 0.02 0.05 0.09 0.24 0.25 0.07 0.03 0.14 0.18 0.16 0.08 0.02 0.02 0.01 0.00 0.00 0.00 0.00 0.00 0.00 0.00 0.00 0.00 0.00 0.00 0.00 0.00 0.00 0.00 0.00 0.00
0.68 0.75 0.60 0.42 0.29 0.05 0.01 0.01 0.01 0.01 0.00 0.00 0.01 0.01 0.02 0.13 0.19 0.19 0.14 0.06 0.05 0.06 0.04 0.03 0.02 0.01 0.00 0.00 0.00 0.00 0.00 0.00 0.00 0.00 0.00 0.00 0.00 0.00 0.00 0.00 0.00 0.00 0.00 0.00
0.45 0.41 0.26 0.05 0.05 0.03 0.04 0.05 0.03 0.01 0.00 0.01 0.01 0.01 0.02 0.05 0.10 0.04 0.04 0.05 0.04 0.02 0.03 0.02 0.00 0.00 0.00 0.00 0.00 0.00 0.00 0.00 0.00 0.00 0.00 0.00 0.00 0.00 0.00 0.00 0.00 0.00 0.00 0.00
0.17 0.14 0.14 0.11 0.03 0.03 0.03 0.05 0.10 0.06 0.04 0.03 0.03 0.03 0.03 0.02 0.04 0.03 0.01 0.03 0.05 0.05 0.00 0.01 0.01 0.00 0.00 0.00 0.00 0.00 0.00 0.00 0.00 0.00 0.00 0.00 0.00 0.00 0.00 0.00 0.00 0.00 0.00 0.00
0.09 0.06 0.07 0.08 0.05 0.03 0.03 0.04 0.11 0.16 0.08 0.02 0.05 0.03 0.01 0.02 0.02 0.00 0.01 0.01 0.01 0.00 0.01 0.00 0.00 0.00 0.00 0.00 0.00 0.00 0.00 0.00 0.00 0.00 0.00 0.00 0.00 0.00 0.00 0.01 0.00 0.00 0.00 0.00